ECMWFFLT2_con_mucape_000.txt.gz
CAPE
861 1260 1027 1120 957 1239 1406 1462 1460 1600 1439 1926 2216 2659 2537 2569 2755 2680 1978 1890 1888 1818 1736 1473 2317 1761 1540 1016 935 945 963 1048 2097 1896 1892 2116 1833 1572 1340 1120 822 431 253 231 174 116 60 81 274 365 328 360 327 0 0 0 0 0 0 0 0 1
655 688 951 1200 1036 642 887 1189 1103 1350 1299 1435 2548 2510 2410 2102 2300 2540 2190 1822 1680 1831 1789 1985 2151 1908 1476 1059 773 761 817 751 1663 1907 2002 1908 1784 1693 1457 1065 814 351 228 166 1 0 0 39 195 369 370 427 15 0 0 0 0 0 0 0 0 30
0 636 612 682 848 701 1016 1108 812 853 1194 1734 2543 2541 2359 2173 2092 2365 2508 1972 1808 1832 1648 1475 1002 1629 1703 1282 962 725 1028 1089 1295 1982 1801 1659 1492 1368 1244 992 643 339 194 18 0 0 0 2 195 441 426 75 0 0 0 0 0 0 0 0 0 124
0 0 461 586 716 925 877 752 942 1313 1383 1376 2090 2578 2490 2201 2098 2200 2366 2223 1728 1859 1740 1579 1309 1581 1871 1726 1268 946 1350 1017 1759 1775 1637 1482 1349 1182 1152 906 499 238 1 0 0 0 0 0 165 246 191 0 0 0 0 0 0 0 0 13 0 142
0 0 0 83 137 762 1217 787 864 1161 957 1090 1514 2142 2411 2315 2226 2216 2264 2240 2091 1793 1753 1750 1859 1714 1401 1418 1304 1187 1188 1287 1421 1460 1266 1011 850 818 640 498 277 1 0 0 0 0 0 0 0 90 109 0 0 0 0 0 0 0 0 0 0 81
0 0 0 0 0 531 765 1094 996 737 982 1163 1429 1326 2189 2203 2083 1980 2236 2044 2093 2137 2014 1957 1963 1629 1118 837 890 821 610 970 1390 1270 940 721 624 472 421 314 0 0 0 0 0 0 0 0 0 0 0 0 0 0 0 0 0 0 0 0 0 117
0 0 0 0 0 286 594 777 857 582 667 779 890 1012 1432 1929 2359 2018 2007 2099 1955 2046 2080 1912 1900 1686 1731 783 1291 1084 926 1150 1193 947 728 400 384 368 297 140 0 0 0 0 0 0 0 0 0 0 0 0 0 0 0 0 0 0 0 0 0 111
0 0 0 0 0 0 286 399 528 651 520 523 729 853 1043 1584 1655 2355 1832 1902 1842 1842 1898 1923 1619 1471 1304 1281 1542 1315 1258 1153 980 752 569 296 204 140 0 0 0 0 0 0 0 0 0 0 0 0 0 0 0 0 0 0 0 0 0 0 0 86
0 0 0 0 0 0 0 235 353 389 185 576 690 616 461 588 1339 1639 1951 1788 1755 1726 1737 1801 1723 1444 1482 1414 1387 1161 1102 920 793 555 340 187 111 90 9 0 0 0 0 0 0 0 0 0 0 0 0 0 0 0 0 0 0 0 0 0 0 16
0 0 0 0 0 0 0 0 0 276 412 398 743 597 442 429 768 1440 1605 1753 1783 1633 1584 1663 1712 1447 1683 1354 1309 1136 1104 863 706 497 290 151 99 67 13 0 0 0 0 0 0 0 0 0 0 0 0 0 0 0 0 0 0 0 0 0 0 0
0 0 0 0 0 0 0 0 0 0 58 198 357 656 661 574 597 683 1122 1276 1360 1553 1436 1481 1487 1323 1475 1460 1326 1098 1118 890 692 481 313 199 78 47 18 1 0 0 0 0 0 0 0 0 0 0 0 0 0 0 0 0 0 0 0 0 0 0
0 0 0 0 0 0 0 0 0 0 0 0 111 225 428 648 664 538 548 561 1098 1221 1554 1390 1268 1243 1172 1330 1240 967 952 862 668 519 353 307 84 32 0 0 0 0 0 0 0 0 0 0 0 0 0 0 0 0 0 0 0 0 0 0 0 0
0 0 0 0 0 0 0 0 0 0 0 0 1 35 22 377 9 501 486 479 537 842 917 1011 1295 1331 1212 1111 1056 877 790 792 625 460 365 423 225 0 10 0 0 0 0 0 0 0 0 0 0 0 0 0 0 0 0 0 0 0 0 0 0 0
0 0 0 0 0 0 0 0 0 0 0 0 0 28 39 0 323 453 529 476 446 486 760 787 1082 1022 808 971 817 755 708 714 589 452 352 430 362 0 0 0 0 0 0 0 0 0 0 0 0 0 0 0 0 0 0 0 0 0 0 0 0 0
0 0 0 0 0 0 0 0 0 0 0 0 0 0 2 69 93 0 414 485 199 368 402 521 577 816 889 934 878 726 726 691 593 407 261 312 391 18 0 0 0 0 0 0 0 0 0 0 0 0 0 0 0 0 0 0 0 0 0 0 0 0
0 0 0 0 0 0 0 0 0 0 0 0 0 0 0 0 0 0 0 336 209 19 351 355 433 669 872 1019 989 806 734 654 572 390 262 267 357 64 0 0 0 0 0 0 0 0 0 0 0 0 0 0 0 0 0 0 0 0 0 0 0 0
0 0 0 0 0 0 0 0 0 0 0 0 0 0 0 0 0 0 0 0 1 17 42 48 269 378 640 665 641 762 733 598 553 384 157 263 338 107 0 0 0 0 0 0 0 0 0 0 0 0 0 0 0 0 0 0 0 0 0 0 0 0
0 0 0 0 0 0 0 0 0 0 0 0 0 0 0 0 0 0 0 2 8 8 15 17 22 349 219 338 398 598 710 659 558 333 273 264 255 80 0 0 0 0 0 0 0 0 0 0 0 0 0 0 0 0 0 0 0 0 0 0 0 0
0 0 0 0 0 0 0 0 0 0 0 0 0 0 0 0 0 0 0 0 0 1 0 103 6 15 368 69 124 272 506 609 519 404 379 268 197 46 0 0 0 0 0 0 0 0 0 0 0 0 0 0 0 0 0 0 0 0 0 0 0 0
0 0 0 0 0 0 0 0 0 0 0 0 0 0 0 0 0 0 0 0 0 0 1 0 18 107 186 299 104 59 301 376 422 378 400 258 194 0 0 0 0 0 0 0 0 0 0 0 0 0 0 0 0 0 0 0 0 0 0 0 0 0
0 0 0 0 0 0 0 0 0 0 0 0 0 0 0 0 0 0 0 0 0 0 0 0 3 28 106 232 166 34 12 263 300 356 311 314 143 22 0 0 0 0 0 0 0 0 0 2 0 0 0 0 0 0 0 0 3 0 0 0 0 0
0 0 0 0 0 0 0 0 0 0 0 0 0 0 0 0 0 0 0 0 0 0 0 0 0 0 18 196 48 121 140 108 204 295 319 275 138 61 0 1 1 0 0 0 0 0 0 8 17 0 0 0 0 0 0 0 2 1 0 0 0 0
0 0 0 0 0 0 0 0 0 0 0 0 0 0 0 0 0 0 0 0 0 0 0 0 0 0 0 2 32 49 102 240 238 204 263 209 99 0 0 0 0 0 0 0 0 0 0 0 0 0 0 0 0 0 0 0 0 0 0 8 5 0
0 0 0 0 0 0 0 0 0 0 0 1 0 0 0 0 0 0 0 0 0 0 0 0 0 0 8 3 27 15 29 135 229 220 222 143 0 0 0 0 0 0 0 0 0 0 0 0 0 0 0 0 0 0 0 0 0 0 0 1 1 0
0 0 0 0 0 0 0 0 0 0 0 0 0 0 0 0 0 0 0 0 0 0 0 0 0 0 0 11 4 8 10 44 187 254 355 336 182 58 14 0 0 0 0 0 0 0 0 0 0 0 0 0 0 0 0 0 0 0 0 0 3 8
0 0 0 0 0 0 0 0 0 0 0 0 0 0 0 0 0 0 0 0 0 0 0 0 0 0 0 33 36 16 27 18 1 258 294 311 293 92 53 21 0 0 0 0 0 0 0 0 0 0 0 0 0 0 0 0 0 0 0 0 2 8
0 0 0 0 0 0 0 0 0 0 2 1 0 0 0 1 0 0 0 0 0 0 0 0 0 0 0 7 43 61 96 154 121 78 199 339 212 124 160 76 26 0 0 0 0 0 0 0 0 0 0 0 0 0 0 0 0 0 0 0 0 0
0 0 0 0 0 0 0 0 0 0 2 2 1 0 0 0 3 5 2 0 0 0 0 0 0 0 0 0 0 21 105 183 214 150 90 80 97 63 47 104 228 146 0 0 5 0 0 0 0 0 0 0 0 4 1 0 0 0 0 0 0 0
0 0 0 0 0 0 0 5 8 4 2 0 0 0 0 0 4 8 8 5 1 0 0 0 0 0 0 0 0 2 21 78 196 286 197 159 137 117 97 129 118 189 142 41 4 0 0 0 0 0 0 0 0 0 0 0 0 0 0 0 0 0
0 0 0 0 0 0 0 1 1 1 0 0 0 0 0 0 2 5 8 10 11 4 0 0 0 0 0 0 0 0 6 36 70 174 335 396 235 160 123 131 208 204 262 132 17 3 0 0 0 0 0 0 0 0 0 0 0 0 0 0 0 0
0 0 0 0 0 0 0 0 0 0 0 0 0 0 0 0 0 1 5 6 10 10 6 1 0 0 0 0 0 0 5 18 47 84 127 282 404 324 233 180 157 238 216 262 195 102 0 0 0 0 0 0 0 0 0 0 0 0 0 0 0 0
0 0 0 0 0 0 0 0 0 0 0 0 0 0 0 0 0 2 4 4 4 10 12 12 4 0 0 0 0 0 4 19 27 54 88 138 180 339 305 244 192 181 267 225 168 218 9 0 0 0 0 0 0 0 0 0 0 0 0 0 0 0
0 0 0 0 0 0 0 0 0 0 0 1 1 3 3 4 4 4 3 3 4 3 5 7 14 8 1 0 1 1 0 7 17 15 55 150 150 160 224 230 151 117 121 151 118 119 52 0 0 0 0 0 0 0 0 0 0 0 0 0 0 0
0 0 0 0 0 0 0 0 0 0 1 2 4 3 2 3 5 6 6 4 4 3 4 8 10 14 11 5 2 3 6 6 20 35 49 76 134 181 149 137 158 126 119 112 114 125 112 38 0 0 0 0 0 0 0 0 0 0 0 0 0 0
0 0 0 0 0 0 0 0 0 0 0 1 2 4 3 3 2 4 5 6 6 7 8 8 11 16 16 14 10 7 8 7 5 11 26 52 82 126 160 200 196 120 87 27 62 26 118 42 13 0 0 0 0 0 0 0 0 0 0 0 0 0
0 0 0 0 0 0 0 0 0 0 0 0 3 4 4 4 4 7 8 8 5 4 5 8 9 12 13 13 16 16 11 7 5 4 6 29 55 83 97 84 116 162 76 36 13 10 25 71 21 0 0 0 1 0 0 0 0 0 0 0 0 0
0 0 0 0 0 0 0 0 0 0 0 1 0 0 1 4 7 9 10 8 7 7 7 8 11 19 18 19 17 17 16 12 11 6 1 3 32 63 91 102 78 78 111 50 22 31 56 61 40 5 0 5 4 4 0 0 0 0 0 0 0 0

ECMWFFLT2_con_mucape_003.txt.gz
CAPE
727 963 1136 1071 1054 982 947 1072 1261 1294 1582 1714 2562 2695 2807 2819 2469 2473 2674 2535 2440 2510 2155 2301 2018 1570 1313 1245 897 940 1540 2037 1872 1888 1590 1628 1512 1346 1002 610 420 332 360 268 184 118 189 456 536 500 529 526 330 194 90 28 8 2 0 0 0 0
422 725 1062 1030 922 935 1246 1212 1252 1322 1263 1490 1714 2790 2780 2568 2628 2439 2446 2581 2684 2481 1509 1782 2558 1328 1608 1232 1195 1131 1395 1660 1886 2035 1823 1820 1634 1276 803 439 292 343 267 118 48 44 184 285 499 544 566 507 276 181 186 86 62 0 1 0 3 25
0 468 966 1197 964 914 1006 1481 1341 1418 1328 1433 1465 2268 2298 2423 2166 2523 1898 2066 2759 2238 1444 1904 2071 1679 1560 1105 1351 1208 1161 1367 1985 2057 1850 1591 1558 1247 928 660 422 382 59 0 0 36 130 266 559 638 648 468 331 217 164 165 110 31 7 29 21 168
0 5 605 1105 1399 1239 895 1240 1247 1169 1208 1289 1678 2010 2321 2051 1847 2578 2080 2422 2444 2525 1819 2446 1513 1491 1637 1335 1456 1111 1169 1245 1950 1940 1772 1549 1445 1069 653 308 190 9 0 0 0 0 67 220 534 600 538 492 314 277 213 182 77 56 41 102 8 70
0 0 52 627 1235 1490 1249 1078 1173 888 999 1170 1390 1257 1788 2198 2378 2206 2440 2420 1889 2415 2308 2356 2151 1978 1613 1804 1800 1735 1636 1621 1695 1732 1590 1267 1075 1055 742 350 44 0 0 0 0 0 123 318 656 655 491 311 251 259 194 156 118 124 105 95 79 9
0 0 0 122 726 987 1177 894 903 885 1020 1085 1026 1221 1236 1672 2481 2697 1936 2066 2214 2420 2552 2667 2252 1660 2110 1940 1663 1767 1756 1680 1631 1415 1468 1119 949 1062 920 651 248 49 7 1 0 0 56 338 452 530 448 258 180 201 202 153 225 233 151 145 130 27
0 0 0 0 32 575 783 850 783 820 944 944 886 909 1205 1172 1332 1894 1703 2342 2515 2574 2596 2492 2181 1962 1935 1723 1569 1796 1545 1386 1466 1301 1255 1122 1179 1112 847 694 474 154 27 1 0 0 0 154 313 345 298 201 158 133 207 206 229 250 201 161 103 13
0 0 0 0 0 0 80 588 624 659 668 726 766 826 840 900 861 995 1544 1844 2186 2462 2034 1836 1911 1960 1854 1683 1617 1616 1655 1190 1202 1144 1108 1025 982 901 860 746 458 137 39 5 0 0 0 0 166 231 233 177 130 139 187 202 212 260 220 163 108 100
0 0 0 0 0 0 0 0 197 416 534 641 712 809 680 734 958 955 1144 1141 1517 2437 2666 1320 1823 1833 1572 1905 1696 1609 1598 1214 1174 1079 939 1097 726 725 681 615 463 212 126 50 11 0 0 0 14 170 210 188 138 123 154 177 236 236 200 162 134 95
0 0 0 0 0 0 0 0 0 0 210 497 581 615 718 678 664 711 947 975 1166 946 2122 2156 2017 1555 1569 1931 1933 1953 1844 1463 1209 999 904 1040 778 676 548 398 404 258 76 50 29 5 0 0 0 28 150 74 73 157 173 189 204 152 172 200 154 67
0 0 0 0 0 0 0 0 0 0 65 242 165 448 667 711 646 609 630 904 923 1043 1117 1883 2025 1679 1271 1550 2078 1570 1284 1391 1019 1020 758 922 748 625 493 353 301 317 162 66 38 3 0 0 0 0 46 123 121 183 203 209 192 162 120 85 72 24
0 0 0 0 0 0 0 0 0 0 0 54 226 251 219 426 541 516 566 762 856 946 1114 1324 2162 1942 1628 2170 1945 1769 1392 1229 991 981 717 764 683 491 358 178 135 150 150 95 14 0 0 0 0 0 1 79 123 156 177 207 182 158 96 82 25 0
0 0 0 0 0 0 0 0 0 0 0 0 0 157 200 173 0 341 428 630 754 736 751 924 1076 2337 1756 2096 1926 1786 1098 1106 1015 942 743 586 529 370 215 106 44 39 60 24 0 0 0 0 0 0 0 47 121 95 103 156 178 169 131 71 8 0
0 0 0 0 0 0 0 0 0 0 0 0 0 0 0 0 0 0 0 436 604 770 691 780 810 1025 2128 1888 1913 2054 1358 1117 908 805 824 599 455 268 206 122 80 48 32 2 0 0 0 0 0 0 0 8 99 141 129 103 166 159 170 64 8 7
0 0 0 0 0 0 0 0 0 0 0 0 0 0 0 0 0 0 0 0 387 579 612 585 658 678 632 1587 1782 1651 1569 1393 995 781 519 552 507 367 288 144 128 85 18 16 5 0 0 0 0 0 1 11 36 113 147 135 158 139 106 129 142 32
0 0 0 0 0 0 0 0 0 0 0 0 0 0 0 0 0 0 0 0 0 69 460 497 484 479 519 715 830 1280 1662 1504 1233 967 654 457 302 221 234 275 118 88 80 21 4 0 0 0 0 0 0 24 70 82 134 149 153 94 51 72 22 52
0 0 0 0 0 0 0 0 0 0 0 0 0 0 0 0 0 0 0 0 0 0 5 318 422 445 321 405 580 635 720 855 874 964 902 545 241 251 254 246 215 114 106 27 0 0 0 0 0 0 0 28 68 62 103 126 122 96 38 63 45 44
0 0 0 0 0 0 0 0 0 0 0 0 0 0 0 0 0 0 0 0 0 0 0 0 179 277 325 311 342 422 514 568 686 621 844 532 256 126 173 233 225 136 57 0 0 0 0 0 0 0 0 18 74 83 102 124 103 74 46 32 45 29
0 0 0 0 0 0 0 0 0 0 0 0 0 0 0 0 0 0 0 0 0 0 0 0 0 0 177 294 316 394 455 483 573 944 774 580 289 120 169 130 204 123 27 0 0 0 0 0 0 0 0 10 43 89 109 112 67 58 50 47 29 35
0 0 0 0 0 0 0 0 0 0 0 0 0 0 0 0 0 0 0 0 0 0 0 0 0 4 0 52 88 357 495 468 552 635 535 539 299 160 127 168 185 102 25 3 1 0 0 0 0 0 2 6 13 33 41 27 20 30 33 67 66 40
0 0 0 0 0 0 0 0 0 0 0 0 0 0 0 0 0 0 0 0 0 0 0 0 0 5 0 0 27 170 318 413 471 475 461 406 343 234 115 129 102 49 2 1 5 0 0 0 0 2 6 6 5 4 13 12 10 7 12 35 53 51
0 0 0 0 0 0 0 0 0 0 0 0 0 0 0 0 0 0 0 0 0 0 0 0 0 0 0 1 2 2 34 286 364 348 313 520 258 379 216 102 107 47 0 0 15 3 0 0 0 0 0 1 4 3 2 6 8 8 10 14 23 35
0 0 0 0 0 0 0 0 0 0 0 0 0 0 0 0 0 0 0 0 0 0 0 0 0 0 0 1 6 6 8 21 139 58 88 322 452 194 202 122 102 68 6 0 0 13 44 3 0 0 0 0 0 0 1 1 6 8 8 7 10 18
0 0 0 0 0 0 0 0 0 0 0 0 0 0 0 0 0 0 0 0 0 0 0 0 0 0 0 0 1 6 6 9 51 62 56 188 326 210 140 119 62 20 0 0 0 10 42 15 0 0 0 0 0 0 0 1 0 0 4 7 9 11
0 0 0 0 0 0 0 0 0 0 0 0 0 0 0 0 0 1 0 0 0 0 0 0 0 0 0 0 0 4 6 8 16 81 70 255 306 132 106 158 23 16 1 4 3 2 12 1 0 2 0 0 0 0 0 0 0 0 0 0 1 5
0 0 0 0 0 0 0 0 0 0 0 0 0 0 0 0 0 0 0 3 2 1 0 0 0 0 0 0 0 2 24 32 27 71 149 99 110 30 88 111 44 33 10 8 16 7 0 28 2 4 0 1 0 1 0 0 0 0 0 0 0 0
0 0 0 0 0 0 0 0 0 0 0 0 0 0 2 2 0 0 3 4 4 2 0 0 0 0 0 0 0 0 0 11 42 94 150 174 111 85 76 124 120 47 16 66 157 38 22 22 25 12 0 20 4 0 7 0 0 0 0 0 0 0
0 0 0 0 0 0 0 0 0 0 0 0 0 1 2 2 3 1 0 1 2 4 3 0 0 0 0 0 0 0 0 0 1 72 176 114 136 113 100 77 97 130 46 7 9 24 36 43 44 30 10 9 4 0 0 0 0 0 0 0 0 0
0 0 0 0 0 0 0 0 0 0 0 0 0 0 0 0 1 2 1 0 1 3 3 5 3 0 0 0 0 0 0 0 0 0 37 81 138 172 156 122 105 64 56 57 20 23 108 139 8 49 6 5 1 1 0 0 0 0 0 0 0 0
0 0 0 0 0 0 0 0 0 0 0 0 0 1 0 0 1 2 2 2 2 1 1 3 4 3 0 0 0 0 0 0 0 1 5 1 56 130 173 119 108 134 84 54 37 19 24 133 76 24 11 2 0 1 0 0 0 0 0 0 0 0
0 0 0 0 0 0 0 0 0 0 0 0 0 2 2 1 0 2 2 1 2 2 2 2 2 3 3 0 0 0 0 0 1 6 2 0 4 46 129 184 217 352 107 62 65 48 29 18 42 25 21 9 13 17 14 0 0 0 0 0 0 0
0 0 0 0 0 0 0 0 0 0 0 1 2 2 2 2 2 2 2 2 2 2 2 3 4 3 4 5 4 0 0 0 0 3 8 11 10 38 181 145 327 586 444 164 65 50 53 37 43 52 42 8 21 21 28 16 12 2 0 0 0 0
0 0 0 0 0 0 0 0 0 0 1 1 2 2 2 2 2 2 3 4 5 5 2 2 2 3 7 8 5 6 2 1 0 0 4 6 5 4 58 216 252 389 394 243 92 54 52 25 70 75 32 4 11 3 12 30 10 12 9 0 0 0
0 0 0 0 0 0 0 0 0 0 1 2 2 2 2 2 2 2 2 3 5 4 5 6 6 5 7 11 10 9 7 4 1 0 0 1 6 12 10 48 168 192 171 336 212 115 54 60 50 48 52 28 0 1 0 6 7 34 17 4 27 0
0 0 0 0 0 0 0 0 0 1 2 2 2 2 2 2 2 2 2 3 4 5 6 6 7 7 7 10 9 10 11 8 4 1 0 0 0 4 17 27 40 88 123 259 406 290 99 75 76 32 28 13 19 7 2 3 9 52 5 13 19 2
0 0 0 0 0 0 0 0 0 1 2 1 2 3 2 2 2 3 2 2 2 3 4 6 7 9 9 9 9 8 9 10 7 5 4 2 0 1 6 16 26 62 132 206 63 185 262 142 116 155 100 84 38 11 26 25 19 35 9 7 18 17
0 0 0 0 0 0 0 0 0 1 1 1 1 2 2 3 3 3 3 1 1 2 4 5 6 8 9 8 10 11 10 8 9 7 6 3 1 3 5 12 14 31 70 181 174 206 217 193 142 131 186 111 18 12 12 23 32 46 38 17 8 19

ECMWFFLT2_con_mucape_006.txt.gz
CAPE
1064 1788 1744 1842 1973 2082 1423 1527 1436 1638 1394 1494 2051 2544 2591 2653 2584 2683 2727 2674 2244 2087 1971 1224 1591 842 1478 1500 1236 764 1531 1931 1808 1707 1599 1357 1021 983 1110 1001 742 733 482 386 399 416 580 770 650 661 614 470 350 39 18 23 0 0 1 0 0 18
795 1093 1845 1792 1770 1912 1626 1486 2133 1719 1750 1607 1721 1890 2727 2380 2392 1564 2042 2467 1463 1087 1140 1520 1537 1124 1464 1495 1587 1444 1569 1884 1778 1732 1680 1506 1448 1268 1050 775 566 364 271 233 98 34 439 832 624 717 607 517 243 80 96 7 0 0 0 0 23 0
301 1048 1077 1868 1755 2017 1909 2055 1999 2044 2167 1744 2005 1720 726 1236 1267 793 418 892 684 1062 1063 1264 1862 1761 1675 1116 803 1662 1671 1677 1792 1734 1627 1540 1394 1049 759 681 513 276 117 0 6 8 9 194 696 723 710 496 155 54 76 125 4 2 0 31 116 23
132 766 807 1122 2061 1782 1921 1972 1971 2132 2021 2199 2225 1924 1422 1030 933 1000 642 632 1029 749 421 1256 1116 1836 1576 1088 1555 1548 1813 1973 1897 1867 1729 1392 1205 925 617 418 298 20 0 0 0 6 5 86 351 545 459 297 195 10 70 44 11 1 18 0 79 92
14 285 679 884 1478 2037 1754 1782 1911 1803 1809 1957 2055 2233 1860 1088 1574 1528 857 1080 932 949 448 1690 530 1670 2105 1837 829 2012 1782 1810 1460 991 1218 591 475 540 251 109 1 0 1 0 0 0 6 68 376 392 332 316 257 172 91 94 66 96 94 27 177 281
0 39 425 685 1185 1334 1864 1643 1767 1830 1961 1886 1994 2080 1704 1849 1607 2068 1979 821 866 1420 811 1463 1846 2024 1887 1955 1255 1538 1490 618 1388 751 453 395 215 341 159 157 14 0 16 2 1 0 6 89 219 460 386 389 279 222 83 88 85 176 224 157 312 237
0 0 47 128 610 818 1536 1575 1426 1731 1908 1996 1940 1871 1856 1522 1804 2051 1911 1466 1379 1535 1661 1721 2105 2268 1626 1912 1689 859 612 866 731 550 233 547 398 364 282 316 211 168 92 32 17 12 13 104 165 201 342 300 270 131 116 123 149 112 213 121 289 181
0 0 0 2 142 394 726 856 973 1146 1368 1244 1604 1662 1698 1638 1757 1624 1952 1765 1862 1436 1720 1860 1961 2007 1756 2016 1982 1678 1158 1151 1271 892 459 612 470 492 362 369 439 294 140 58 37 32 1 0 138 236 296 239 280 202 155 93 90 118 129 60 159 180
0 0 0 0 0 3 88 339 442 578 733 806 1100 1327 1657 1785 1826 1513 1760 2012 2054 1832 1533 1811 1979 1970 2051 1810 1954 1776 1490 1256 837 1008 988 589 319 331 244 414 497 418 263 125 87 49 13 0 45 203 235 276 266 187 195 187 144 199 123 47 54 347
0 0 0 0 0 0 0 0 5 43 316 499 663 788 928 1538 1817 1806 1851 1838 1705 1670 1719 1688 1446 1905 1700 1568 1789 1899 1816 1177 898 1162 1244 768 418 323 398 452 470 271 128 160 60 41 26 4 0 53 185 183 245 206 178 182 167 111 66 65 57 424
0 0 0 0 0 0 0 0 0 0 0 306 323 317 344 673 722 1364 1747 1861 1954 1799 1474 1484 941 1764 864 1124 1752 1614 1618 1405 1304 1124 997 820 610 389 388 376 400 321 183 126 91 32 18 7 0 0 54 34 63 120 167 177 155 60 29 12 8 129
0 0 0 0 0 0 0 0 0 0 0 0 138 262 237 246 399 481 830 1384 1553 1840 1731 1620 1046 978 1803 1950 1556 1648 1427 1218 1286 1180 938 772 613 522 380 342 384 491 429 224 145 108 38 15 1 0 0 11 54 144 143 156 124 74 14 12 3 2
0 0 0 0 0 0 0 0 0 0 0 0 0 95 283 238 147 393 397 851 1293 1514 1766 1678 1906 1601 1558 1362 1340 1460 1494 1353 1033 914 1106 979 952 807 427 451 503 497 524 372 259 137 55 12 0 0 0 1 48 114 110 86 98 37 13 9 4 0
0 0 0 0 0 0 0 0 0 0 0 0 0 0 0 217 157 125 91 477 824 1278 1446 1658 1559 1747 1987 1409 1326 1005 968 1127 645 899 1084 1354 1211 1285 559 475 442 443 347 233 205 99 84 11 0 0 0 0 90 144 99 98 82 27 25 5 1 3
0 0 0 0 0 0 0 0 0 0 0 0 0 0 0 0 0 0 0 19 160 635 918 1264 1355 1530 1399 1661 1666 1129 1002 766 794 907 1340 1132 1107 1101 819 426 403 287 377 278 136 82 60 5 0 0 0 0 8 89 156 51 54 50 10 18 13 4
0 0 0 0 0 0 0 0 0 0 0 0 0 0 0 0 0 0 0 0 0 90 299 657 969 1128 1358 1193 1503 1759 1886 1956 1287 893 991 1062 781 757 786 643 544 310 330 342 187 105 84 1 0 0 0 0 8 84 123 65 65 25 10 14 2 10
0 0 0 0 0 0 0 0 0 0 0 0 0 0 0 0 0 0 0 0 1 2 1 344 618 919 1207 1225 1047 1181 1158 1467 1895 1473 1158 1011 925 617 834 928 895 358 362 342 268 113 88 0 0 0 0 0 3 78 60 38 50 34 2 5 5 2
0 0 0 0 0 0 0 0 0 0 0 0 0 0 0 0 0 0 0 0 0 2 4 22 14 296 607 862 1017 996 990 1048 1271 1528 1730 1163 1163 985 783 1000 989 449 250 366 247 138 57 0 0 0 0 2 4 59 55 45 25 17 8 6 7 0
0 0 0 0 0 0 0 0 0 0 0 0 0 0 0 0 0 0 0 0 0 0 0 0 0 17 96 315 570 587 671 688 631 1183 1816 1738 1528 1211 1070 882 364 188 362 554 310 206 67 1 0 0 0 13 0 18 49 28 23 9 6 4 2 0
0 0 0 0 0 0 0 0 0 0 0 0 0 0 0 0 0 0 0 0 0 0 0 0 0 0 0 43 249 366 359 240 383 541 684 799 732 754 927 914 797 453 516 549 504 182 64 2 0 0 0 2 2 1 32 63 76 12 8 3 0 0
1 0 0 0 0 0 0 0 0 0 0 0 0 0 0 0 0 0 0 0 0 0 0 0 0 0 0 0 0 0 171 60 254 366 360 507 602 612 873 879 791 506 388 535 338 152 86 2 0 0 0 1 3 1 7 37 51 24 5 1 0 0
0 0 0 0 0 0 0 0 0 0 0 0 0 0 0 0 0 0 0 0 0 0 0 0 0 0 0 0 0 0 14 0 2 16 182 297 583 526 598 880 824 530 323 268 113 188 172 20 0 2 17 1 0 3 4 8 12 10 0 0 1 0
0 0 0 0 0 0 0 0 0 0 0 0 0 0 0 0 0 0 0 0 0 0 0 0 0 0 0 0 0 0 2 3 3 182 140 184 341 1069 656 622 812 457 77 243 120 59 127 172 0 0 10 0 0 0 2 3 6 0 0 0 0 0
5 0 0 0 0 0 0 0 0 0 0 0 0 0 0 0 0 0 0 0 2 0 0 0 0 0 0 0 0 0 0 2 1 14 12 99 184 322 579 601 517 492 465 68 99 82 28 162 21 2 2 0 2 0 0 0 0 0 0 0 0 0
4 0 0 0 0 0 0 1 0 0 0 0 0 0 0 0 0 0 0 3 7 7 1 0 0 0 0 0 0 1 0 1 0 4 20 32 17 54 124 437 612 577 272 98 56 95 57 63 0 0 2 6 0 0 0 1 4 1 0 0 0 0
0 0 0 0 0 0 0 0 0 0 0 0 0 0 0 0 0 0 4 8 6 6 4 2 0 0 0 0 0 0 0 5 4 5 10 55 227 484 436 707 584 575 311 204 59 59 36 28 6 0 0 0 3 1 4 0 60 42 4 4 0 0
0 0 0 0 0 0 0 0 0 0 0 0 0 0 0 0 0 0 0 5 5 7 5 5 2 2 1 0 0 0 0 0 0 10 33 56 121 385 548 546 604 496 519 400 184 75 195 45 47 0 0 0 4 0 53 29 20 38 2 18 1 3
0 0 0 0 0 0 0 0 0 0 0 0 0 0 0 0 0 0 0 0 0 3 6 5 5 2 2 0 1 1 0 0 0 0 1 13 44 169 360 378 364 400 380 328 199 18 13 333 10 4 0 5 10 2 47 7 7 7 3 20 14 4
0 0 0 0 0 0 0 0 0 0 0 0 0 0 0 0 0 0 0 0 0 0 0 4 4 4 2 1 4 2 4 3 0 0 0 0 28 80 155 315 523 547 181 134 77 88 69 273 327 205 0 0 1 11 19 16 7 2 0 1 1 5
0 0 0 0 0 0 0 0 0 0 0 0 0 0 0 0 0 0 0 0 0 0 0 0 0 4 4 2 3 6 4 4 4 0 0 0 2 20 120 176 235 347 351 119 107 68 40 51 371 740 173 19 8 50 118 38 4 19 3 8 6 5
0 0 0 0 0 0 0 0 0 0 0 0 0 0 0 0 0 0 0 0 0 0 0 0 0 0 2 4 7 6 3 3 3 3 0 0 2 4 29 107 142 276 217 191 188 127 14 16 208 595 380 272 108 113 87 114 69 50 46 12 1 0
0 0 0 0 0 0 0 0 0 0 0 0 0 0 0 0 0 0 0 0 0 0 0 0 0 0 0 2 6 8 8 9 3 2 1 0 0 2 9 31 108 323 246 216 230 146 68 4 24 113 352 399 310 185 93 120 95 58 26 19 8 0
11 0 0 0 0 0 0 0 0 0 0 0 0 0 0 0 0 0 0 0 0 0 0 0 0 0 0 2 3 4 6 9 7 5 4 0 0 0 3 10 30 107 162 269 290 261 114 60 42 46 80 248 399 299 175 88 239 210 127 53 22 7
17 0 0 0 0 0 0 0 0 0 0 0 0 0 0 0 0 0 0 0 0 0 0 0 0 0 0 1 1 3 5 7 10 9 7 6 1 0 0 1 1 12 94 239 236 112 84 89 133 120 91 106 189 310 291 315 158 131 25 120 66 8
4 0 0 0 0 0 0 0 0 0 0 0 0 0 0 0 0 0 0 0 0 0 0 0 0 0 0 0 1 1 3 3 4 7 9 9 9 1 0 0 0 0 4 71 121 70 96 71 129 153 160 45 61 153 245 268 304 216 52 131 96 18
3 0 0 0 0 0 0 0 0 0 0 0 0 0 0 0 0 0 0 0 0 0 0 0 0 0 0 0 1 1 1 2 2 5 9 11 9 6 6 0 0 0 0 0 52 116 53 24 15 33 175 192 85 68 179 293 392 358 269 46 170 59
0 0 0 0 0 0 0 0 0 0 0 0 0 0 0 0 0 0 0 0 0 0 0 0 0 0 0 0 0 1 2 2 8 11 11 7 6 8 10 12 2 0 0 0 3 8 45 94 290 423 451 422 224 100 66 143 203 226 160 52 58 49

ECMWFFLT2_con_mucape_009.txt.gz
CAPE
1747 2062 2192 2216 1938 1458 1687 1641 1587 1622 1862 2048 2319 2497 2534 2552 2657 2710 2676 2650 2296 1916 2136 1817 1969 1219 1762 1620 1518 1595 1960 1882 1685 1422 1243 1318 1296 1072 832 725 916 1008 1079 1198 1157 1018 998 838 759 826 720 462 353 70 3 149 0 19 41 0 70 0
716 1827 2176 2192 1788 1508 1657 1362 1460 2208 1972 1848 2126 2482 2456 1726 1978 1738 2601 2311 1702 1474 1014 1451 1908 873 1497 678 1432 1787 2013 1874 1731 1414 1284 1246 1206 1042 968 892 902 812 762 453 583 321 756 940 730 769 695 561 179 8 185 63 0 0 48 0 4 0
62 701 1677 1929 2020 1529 2055 1914 1959 1344 2014 1521 2091 1929 1297 1050 1028 838 902 1245 844 750 1285 728 916 1195 1263 914 1278 1653 2015 1800 1842 1596 1373 1304 1261 1211 1101 988 705 562 422 428 109 34 37 336 374 825 742 593 39 64 199 7 15 10 0 56 0 0
2 98 553 1371 1632 1848 1995 1776 1804 1958 1618 1414 1959 1789 1195 690 266 615 712 548 698 678 895 1202 797 1114 680 1096 1364 1323 1921 1835 1820 1739 1577 1459 1381 1245 953 791 474 387 268 12 52 0 3 233 292 306 214 140 75 173 150 33 0 0 0 39 0 44
3 14 117 576 1618 1345 1802 1404 1544 1697 1513 1432 1451 1606 1201 846 962 931 602 623 489 968 658 1482 968 918 1060 1386 776 1516 1778 1664 1545 1338 1377 656 582 772 708 431 356 133 74 41 24 0 1 58 482 131 159 176 90 190 115 72 4 117 99 41 0 71
0 6 29 112 701 1385 1576 1248 1143 1107 1151 1110 971 1096 1261 1060 1084 1284 1704 642 730 657 532 1036 1090 1069 1090 1055 1709 1457 1284 553 619 750 678 375 231 325 221 169 114 89 110 82 8 0 0 12 140 230 242 163 234 196 108 118 17 242 208 344 2 311
0 0 8 38 246 848 1191 1030 1127 1088 1003 1023 958 893 1043 1333 1247 2043 2028 1826 1090 974 620 953 1156 1085 1244 1322 946 1288 1281 1477 1146 659 334 378 282 224 143 208 80 188 86 43 12 32 2 49 41 167 137 155 164 150 111 164 113 126 147 211 201 416
0 0 0 0 13 161 745 1152 1026 1312 909 1041 981 904 962 992 1658 1797 1698 1434 1238 1566 1139 1344 1445 1368 883 935 590 1368 1323 1376 1194 594 279 362 252 355 110 344 155 96 51 31 11 18 7 3 72 136 131 110 168 135 112 150 208 134 98 182 129 350
0 0 0 0 0 54 115 294 713 886 803 823 1002 1046 878 1132 1763 1749 1240 1149 1271 1269 1433 1162 943 892 1237 1434 1287 1672 1422 896 1108 604 424 404 413 442 244 436 399 232 69 34 31 16 36 34 44 41 98 144 149 129 138 121 190 187 124 171 475 220
0 0 0 0 0 0 0 44 36 63 563 916 1119 1070 1066 1545 1202 1179 1332 1184 1202 1332 1146 1261 1352 1686 1688 1201 1076 1065 1265 1471 1244 783 768 507 529 520 439 372 401 256 217 101 20 2 17 79 36 45 25 91 138 156 139 149 128 194 61 153 321 125
0 0 0 0 0 0 0 0 0 0 76 362 455 751 999 1145 1149 1370 1006 976 1063 901 912 1220 1188 1387 1759 2006 1712 1438 758 1103 692 534 815 635 695 381 367 423 395 308 285 163 33 16 14 62 48 12 38 42 52 63 96 102 123 84 101 92 231 386
0 0 0 0 0 0 0 0 0 0 0 0 74 310 370 294 882 1062 1159 1084 1108 888 848 668 1004 1406 1709 1637 1855 1750 1003 580 653 695 835 1126 1241 830 515 262 342 366 220 131 94 93 94 56 51 1 1 10 31 86 69 95 88 134 77 89 49 452
0 0 0 0 0 0 0 0 0 0 0 0 0 56 50 7 128 496 702 1247 980 861 1059 1170 1013 1278 1471 1425 1597 1532 811 874 779 280 515 914 1056 1093 857 431 380 319 272 234 234 165 104 98 47 22 0 2 11 17 65 77 80 96 102 72 55 52
0 0 0 0 0 0 0 0 0 0 0 0 0 0 0 0 0 0 138 648 1099 1299 1188 1508 890 1154 1784 1541 1361 1170 1124 1207 1226 1179 822 858 1077 645 803 619 536 445 409 318 245 202 162 140 53 10 0 0 26 26 64 48 60 49 78 44 38 24
0 0 0 0 0 0 0 0 0 0 0 0 0 0 0 0 0 0 0 18 293 504 848 646 1048 950 1550 1580 1428 1006 798 792 1601 1022 649 929 1088 1235 1372 797 569 410 364 369 220 155 138 147 71 2 0 0 0 28 83 64 55 37 29 39 21 12
0 0 0 0 0 0 0 0 0 0 0 0 0 0 0 0 0 0 0 0 0 125 302 621 989 1034 920 1243 1315 794 724 739 550 1035 1013 859 1093 1180 1046 472 205 439 332 258 209 160 108 101 60 6 0 0 0 10 93 61 36 12 0 0 0 11
0 0 0 0 0 0 0 0 0 0 0 0 0 0 0 0 0 0 0 0 0 19 192 143 518 1064 1130 1240 996 932 852 941 1048 1276 885 1145 1307 1062 774 715 564 377 268 296 252 130 83 56 25 7 0 0 0 0 31 39 13 25 0 0 0 0
0 0 0 0 0 0 0 0 0 0 0 0 0 0 0 0 0 0 0 0 0 0 0 34 251 435 836 780 600 899 628 1587 1292 1387 1095 836 911 1051 846 814 704 914 677 366 276 212 151 46 9 0 0 0 0 0 10 32 8 6 0 0 0 0
2 0 0 0 0 0 13 1 0 0 0 0 0 0 0 0 0 0 0 0 0 0 0 0 0 26 100 585 817 1012 564 787 1170 1305 1014 1134 846 943 932 965 1063 792 1121 454 328 262 234 67 7 1 0 0 0 13 5 8 8 3 4 1 1 0
0 0 0 0 0 0 0 0 0 0 0 0 0 0 0 0 0 0 0 0 0 0 0 0 0 0 2 77 300 628 818 778 907 1225 1599 1636 1323 1165 862 811 986 911 1351 578 351 681 478 190 81 4 0 0 0 6 0 16 7 3 0 4 4 0
0 0 3 0 0 0 0 0 0 0 0 0 0 0 0 0 0 0 0 0 0 0 0 0 0 0 0 1 0 2 201 466 531 443 523 1016 1426 829 742 848 988 947 956 740 1017 712 728 379 128 3 2 0 40 42 37 8 1 3 2 2 1 7
3 0 0 0 0 0 0 0 0 0 0 0 0 0 0 0 0 0 0 0 0 0 0 0 0 0 0 0 1 0 0 7 75 198 230 285 628 1050 1332 1478 1597 1193 907 799 547 858 780 280 149 68 4 0 38 32 40 26 2 0 0 0 1 0
22 0 0 0 0 0 0 0 0 0 0 0 0 0 0 0 0 0 1 0 0 0 0 0 0 0 0 0 0 0 0 0 3 6 0 0 110 467 907 1270 1422 1050 977 663 517 488 462 350 88 30 17 27 46 36 18 3 16 16 3 0 0 0
37 0 0 0 0 0 0 0 0 0 0 0 0 0 0 0 0 0 0 0 0 0 0 0 0 0 0 0 0 0 1 4 8 5 15 60 135 295 570 1057 1112 953 860 677 507 513 594 592 240 76 96 2 30 16 17 41 21 19 6 3 0 0
55 7 0 0 0 0 0 33 5 4 1 2 0 0 0 0 0 0 0 0 1 0 0 0 0 0 0 0 0 3 2 3 8 5 4 13 4 69 232 510 691 906 913 617 572 710 655 543 380 441 151 92 10 4 17 22 60 42 11 0 0 0
81 17 0 0 0 3 3 0 0 0 0 0 0 0 0 0 0 0 0 0 0 0 0 0 0 0 0 0 0 0 2 4 5 4 0 3 20 34 52 154 230 676 1027 661 630 587 453 380 587 634 830 253 87 75 10 12 12 149 63 24 10 0
90 26 1 0 0 0 0 0 0 0 0 0 0 0 0 0 0 0 0 0 0 0 0 0 0 0 0 0 0 0 0 1 2 3 2 9 15 48 118 189 130 226 470 589 491 529 318 604 293 298 353 242 22 24 43 18 22 34 40 92 53 27
102 23 4 0 0 0 0 0 0 0 0 0 0 0 0 0 0 0 0 0 0 0 0 0 0 0 0 0 0 0 0 1 0 0 0 0 0 19 74 110 261 377 278 289 433 406 393 343 233 316 462 290 79 123 15 55 20 13 20 60 88 47
110 40 3 0 0 0 0 0 0 0 0 0 0 0 0 0 0 0 0 0 0 0 0 0 0 0 0 0 0 0 0 0 0 0 0 0 0 0 2 80 106 226 460 902 780 836 679 499 451 440 595 372 407 370 139 3 8 2 9 22 47 143
124 61 35 0 0 0 0 0 0 0 0 0 0 0 0 0 0 0 0 0 0 0 0 0 0 0 0 0 0 1 0 0 0 0 0 0 0 0 3 15 76 145 313 656 851 949 743 628 698 810 788 513 329 174 18 0 0 1 6 13 3 38
152 80 51 6 0 0 0 0 0 0 0 0 0 0 0 0 0 0 0 0 0 0 0 0 0 0 0 0 0 0 0 0 1 2 0 0 0 0 0 0 2 51 256 378 576 662 779 729 778 806 1045 1188 374 14 1 11 1 1 5 12 19 12
192 99 55 13 0 0 0 0 0 0 0 0 0 0 0 0 0 0 0 0 0 0 0 0 0 0 0 0 0 0 0 0 0 1 0 0 0 0 1 0 0 2 37 220 407 579 669 623 690 554 739 964 731 458 337 54 11 26 3 13 40 8
201 117 54 12 0 0 0 0 0 0 0 0 0 0 0 0 0 0 0 0 0 0 0 0 0 0 0 0 0 0 0 0 0 0 2 2 2 1 2 6 5 3 5 40 322 474 633 510 465 534 461 658 800 639 616 529 310 275 760 544 152 223
192 133 57 7 0 0 0 0 0 0 0 0 0 0 0 0 0 0 0 0 0 0 0 0 0 0 0 0 0 0 0 0 0 0 0 0 0 0 1 2 3 1 0 4 42 319 652 341 390 337 474 442 497 187 404 548 469 343 278 400 429 275
202 136 60 6 0 0 0 0 0 0 0 0 0 0 0 0 0 0 0 0 0 0 0 0 0 0 0 0 0 0 0 0 0 0 0 0 0 1 2 0 0 0 2 0 1 24 202 395 313 272 158 174 370 459 419 602 482 230 135 79 253 320
208 183 65 4 0 0 0 0 0 0 0 0 0 0 0 0 0 0 0 0 0 0 0 0 0 0 0 0 0 0 0 0 0 0 0 0 0 0 1 2 0 2 0 0 1 0 28 220 465 480 333 297 132 81 173 329 454 493 441 411 525 638
196 169 85 3 0 0 0 0 0 0 0 0 0 0 0 0 0 0 0 0 0 0 0 0 0 0 0 0 0 0 0 0 0 0 0 0 0 0 2 3 1 2 1 0 1 0 2 23 88 439 604 459 404 148 170 252 233 312 352 371 515 471

ECMWFFLT2_con_mucape_015.txt.gz
CAPE
1344 1548 1654 1626 1388 1304 1719 1941 2153 2360 2339 2392 2309 2298 2350 2330 2292 2162 2254 2278 2104 2105 2106 2195 2056 1969 2105 1761 1618 1799 2025 2049 1756 1715 1631 1657 1606 1510 1403 1306 1253 1281 1187 1030 864 749 689 680 575 496 366 614 660 60 0 0 9 19 0 13 18 24
1304 1517 1484 1443 1416 1604 1654 1755 1849 2023 2132 2149 2287 2296 2196 2134 2165 2238 2368 2165 1873 1944 1967 2005 2003 2100 1647 1780 1916 1866 2021 2014 1850 1750 1609 1576 1542 1547 1395 1314 1289 1281 1133 1020 923 687 657 683 552 379 712 736 281 2 0 4 7 14 5 0 17 161
1428 1489 1378 1336 1423 1563 1630 1743 1735 1782 1892 2189 2182 2217 2183 2333 2137 2160 2134 2091 1955 1861 1783 1869 1927 1753 1663 1862 1855 1948 2011 2014 1995 1792 1568 1537 1513 1479 1376 1365 1360 1275 1116 1062 899 451 312 366 321 624 742 482 166 50 8 4 0 0 0 4 6 324
1564 1515 1335 1426 1425 1512 1523 1694 1666 1752 1708 1670 1600 1784 2169 2020 1858 1775 1909 2048 2007 1783 1527 1281 1898 1288 1718 1509 1853 1884 2029 1966 1932 1873 1562 1371 1252 1326 1321 1367 1366 1249 1067 1045 815 385 146 190 100 142 191 131 72 16 19 10 0 0 0 121 90 403
1561 1376 1534 1767 1557 1604 1587 1592 1528 1678 1573 1509 1256 1431 1500 1412 1172 922 1445 1692 1792 1467 1120 1019 1016 975 953 1104 1505 1536 1463 1618 1659 1637 1512 1152 962 971 919 818 754 615 506 554 568 88 0 43 33 111 49 35 40 12 6 18 0 0 0 43 171 416
1130 1213 1512 1593 1586 1680 1562 1463 1416 1428 1377 1304 1226 1367 1366 1321 1252 1178 1046 1226 979 949 869 820 791 729 691 871 1159 1115 1188 1467 1387 1385 1250 1144 829 789 352 91 37 10 2 0 0 0 0 5 6 100 0 0 4 11 4 36 0 0 0 23 239 455
0 346 1490 1469 1590 1443 1479 1381 1366 1336 1399 1216 1269 1325 1282 1266 1265 1108 1020 878 842 792 812 724 670 874 860 778 941 1007 1027 1124 1281 1188 1072 1026 837 714 318 34 0 0 0 0 0 0 0 10 19 78 0 0 0 4 23 5 0 0 0 42 234 449
0 0 1290 1708 1538 1297 1302 1381 1446 1507 1401 1286 1435 1316 1332 1210 1240 1043 1163 1056 834 654 698 671 631 627 681 697 639 838 982 988 1078 878 900 772 694 692 333 75 0 0 0 0 0 0 0 17 120 196 2 0 0 9 40 4 0 0 0 37 169 444
0 0 922 1657 1410 1304 1305 1400 1324 1325 1306 1412 1268 1203 1181 1227 1167 1004 879 1094 1055 1057 772 694 515 380 625 572 678 762 838 730 669 622 474 593 422 511 304 60 0 0 0 0 0 0 0 73 283 101 5 12 6 5 30 0 0 0 0 20 76 343
0 0 0 759 1314 1350 1431 1353 1219 1103 1374 1578 1224 1130 945 992 884 845 925 1043 1011 1012 924 929 533 387 600 691 619 600 643 762 641 544 400 236 403 162 128 20 73 0 0 0 0 0 0 182 245 2 0 11 28 14 40 0 0 0 0 0 12 209
0 0 0 0 0 0 1009 1116 1237 1154 1310 883 1008 1037 928 1057 1065 1072 948 926 1013 1157 941 817 863 621 662 625 585 650 532 680 755 634 466 308 589 716 240 161 74 36 0 0 31 88 0 0 0 0 0 0 0 0 92 59 1 0 0 0 7 122
0 0 0 0 0 0 0 88 844 1228 1109 799 971 887 762 1036 1157 1082 845 880 924 986 899 838 810 772 726 683 681 653 656 602 766 793 526 322 592 538 231 328 238 251 142 110 219 244 6 0 0 0 0 0 0 0 46 78 20 0 0 0 2 51
0 0 0 0 0 0 0 0 0 0 0 0 1029 621 1013 1029 1035 792 946 743 1058 816 959 922 845 865 1016 749 807 761 877 725 714 810 632 666 609 352 329 303 221 235 126 142 222 238 1 0 0 0 0 0 0 0 0 17 32 30 27 0 5 12
0 0 0 0 0 0 0 0 0 0 0 0 0 254 556 570 724 964 1142 804 954 772 736 894 862 879 951 1095 975 924 819 708 768 802 723 607 326 335 322 272 217 342 483 291 309 256 190 16 0 0 0 0 0 0 0 0 2 10 64 4 0 0
0 0 0 0 0 0 0 0 0 0 0 0 0 0 0 54 401 419 1058 813 559 542 528 578 731 926 891 957 981 936 1007 914 878 730 636 435 414 258 313 274 166 363 310 99 172 117 178 12 0 0 0 0 0 0 0 0 0 3 93 66 0 0
0 0 0 0 0 0 0 0 0 8 0 0 0 0 0 0 0 0 385 654 475 340 382 369 520 778 823 914 885 1034 942 909 954 785 646 721 520 464 281 365 486 362 112 97 178 242 184 0 0 0 0 0 0 0 0 0 0 24 117 148 44 8
0 0 0 0 0 0 0 0 0 0 0 0 0 0 0 0 0 0 0 0 0 156 280 559 468 833 638 679 773 982 998 1119 964 980 854 737 739 538 493 616 388 309 270 138 117 70 76 1 0 0 0 0 0 0 0 0 0 17 8 252 200 78
0 0 0 0 0 0 0 0 0 0 2 0 0 0 0 0 0 0 0 0 0 0 0 0 562 703 847 636 657 804 930 913 895 773 647 572 583 664 517 429 415 282 328 393 456 567 455 350 12 6 0 0 0 0 0 0 0 0 0 4 296 284
0 0 0 0 0 0 0 0 0 0 0 0 0 0 0 0 0 0 0 0 0 0 0 0 0 440 893 1075 865 898 637 758 850 858 812 775 882 932 915 577 540 510 801 524 245 493 694 734 588 527 216 0 0 0 0 0 0 8 0 0 0 303
0 0 0 0 0 0 0 0 0 0 0 0 0 0 0 0 0 0 0 0 0 0 0 0 0 0 0 2 294 1008 1172 980 621 706 714 850 994 865 844 736 718 681 780 789 705 523 562 685 607 544 505 424 142 0 0 0 0 0 0 0 0 0
0 0 0 0 0 0 0 0 0 0 0 0 0 0 0 0 0 0 0 0 0 0 0 0 0 0 0 51 0 0 348 987 858 559 514 419 706 936 844 831 628 696 781 1003 1033 896 597 579 577 368 310 370 239 0 0 0 0 0 0 0 0 0
0 0 0 0 0 0 0 0 0 0 0 0 0 0 0 0 0 0 0 0 0 0 0 0 0 0 0 0 0 0 0 1 835 576 238 462 649 702 643 786 859 723 654 726 844 950 911 679 561 257 217 305 252 0 0 0 0 0 0 0 0 0
0 0 0 0 0 0 0 0 0 0 0 0 0 0 0 0 0 0 0 0 0 0 0 0 0 0 0 0 0 0 0 0 16 309 268 116 328 440 516 596 644 665 785 738 780 823 1007 797 561 367 173 258 350 138 0 0 0 0 0 0 0 0
0 0 0 0 0 0 0 0 0 0 0 0 0 0 0 0 0 0 0 0 0 0 0 0 0 0 0 0 0 0 0 0 0 8 120 108 1 0 311 371 253 467 473 611 736 805 789 908 908 755 406 328 303 2 1 0 0 0 0 0 0 0
0 0 0 0 0 0 0 0 0 0 0 0 0 0 0 0 0 0 0 0 0 0 0 0 0 0 0 0 0 0 0 0 0 0 0 0 29 5 80 8 242 382 526 580 535 543 588 657 731 750 558 322 266 71 3 0 0 6 0 4 0 0
0 0 0 0 0 0 0 0 0 0 0 0 0 0 0 0 0 0 0 0 0 0 0 0 0 0 0 0 0 0 0 0 0 0 0 0 0 0 0 179 214 470 594 622 453 356 385 480 536 544 609 583 367 257 60 128 3 0 1 0 0 0
0 0 0 0 0 0 0 0 0 0 0 0 0 0 0 0 0 0 0 0 0 0 0 0 0 0 0 0 0 0 0 0 0 0 0 0 0 0 0 0 0 5 116 354 520 456 403 379 420 533 529 588 562 454 314 219 252 42 26 0 0 0
0 0 0 0 0 0 0 5 0 0 0 0 0 0 0 0 0 0 0 0 0 0 0 0 0 0 0 0 0 0 0 0 0 0 0 0 0 0 0 0 0 2 22 49 191 353 282 425 447 446 530 555 615 568 494 438 5 140 97 2 0 0
0 0 0 0 0 0 0 0 0 0 0 0 0 0 0 0 0 0 0 0 0 0 0 0 0 0 0 0 0 0 0 0 0 0 0 0 0 0 0 0 0 0 0 1 50 264 432 460 474 474 441 429 418 401 442 358 360 74 97 56 11 0
0 0 0 0 0 0 0 0 0 0 0 0 0 0 0 0 0 0 0 0 0 0 0 0 0 0 0 0 0 0 0 0 0 0 0 0 0 0 0 0 0 0 0 0 0 12 116 288 406 481 467 448 383 321 238 352 306 385 256 63 60 4
2 0 0 0 0 0 0 0 0 0 0 0 0 0 0 0 0 0 0 0 0 0 0 0 0 0 0 0 0 0 0 0 0 0 0 0 0 0 0 0 0 0 0 0 0 0 1 21 100 202 326 414 403 296 16 22 79 238 277 303 70 1
9 0 0 0 0 0 0 0 0 0 0 0 0 0 0 0 0 0 0 0 0 0 0 0 0 0 0 0 0 0 0 0 0 0 0 0 0 0 0 0 0 0 0 0 0 0 0 0 17 121 225 283 328 349 300 66 33 18 13 10 24 0
21 0 0 0 0 0 0 0 0 0 0 0 0 0 0 0 0 0 0 0 0 0 0 0 0 0 0 0 0 0 0 0 0 0 0 0 0 0 0 0 0 0 0 0 0 0 0 0 0 70 203 288 301 277 334 284 63 48 7 0 0 0
70 0 0 0 0 0 0 0 0 0 0 0 0 0 0 0 0 0 0 0 0 0 0 0 0 0 0 0 0 0 0 0 0 0 0 0 0 0 0 0 0 0 0 0 0 0 0 0 0 0 50 152 226 212 261 321 285 265 27 1 76 0
312 0 0 0 0 0 0 0 0 0 0 0 0 0 0 0 0 0 0 0 0 0 0 0 0 0 0 0 0 0 0 0 0 0 0 0 0 0 0 0 0 0 0 0 0 0 0 0 0 0 0 34 130 166 159 111 133 270 321 184 64 43
403 337 98 0 0 0 0 0 0 0 0 0 0 0 0 0 0 0 0 0 0 0 0 0 0 0 0 0 0 0 0 0 0 0 0 0 0 0 0 0 0 0 0 0 0 0 0 0 0 0 0 0 35 122 192 179 178 191 291 274 263 210
509 447 375 73 0 0 0 0 0 0 0 0 0 0 0 0 0 0 0 0 0 0 0 0 0 0 0 0 0 0 0 0 0 0 0 0 0 0 0 0 0 0 0 0 0 0 0 0 0 0 0 0 1 33 103 165 173 167 162 210 201 150

ECMWFFLT2_con_mucape_021.txt.gz
CAPE
1827 1924 2120 2207 2313 2426 2408 2459 2413 2444 2341 2307 2132 2214 2022 2246 2264 2198 1905 2024 2050 1734 1592 1822 1689 2152 2025 2018 1913 1980 2152 1948 1595 1589 1651 1854 1791 1708 1628 1396 1297 1263 1322 1277 1138 1007 835 838 760 731 697 351 116 0 0 0 0 0 0 21 80 0
1686 1750 1906 2061 2206 2345 2339 2339 2412 2414 2373 2218 2121 2276 2193 2168 2214 1723 1671 1872 2024 1930 1928 1790 1859 1880 1987 1912 2080 2085 2138 1767 1615 1669 1915 1708 1671 1707 1625 1454 1364 1142 1286 1266 1149 600 180 273 525 599 499 267 0 0 0 0 0 0 0 3 50 15
1521 1670 1820 1887 2111 2247 2244 2257 2334 2396 2357 2358 2233 1916 2080 2134 1994 1812 1594 1733 2070 2078 1995 1881 1884 1833 1693 2010 1992 2198 2134 1622 1480 1686 1977 1724 1830 1759 1585 1518 1409 1381 1266 1229 813 447 0 0 39 254 122 5 0 0 0 0 0 0 0 3 0 140
1513 1521 1645 1870 1997 2027 2060 2186 2255 2322 2348 2254 1920 2053 2160 2105 1921 1912 1742 1879 1918 2002 1938 1918 2102 1616 1604 1922 2016 2127 2045 1271 1248 1798 1948 1671 1802 1740 1644 1550 1461 1355 1216 900 590 339 14 0 0 0 0 0 0 0 0 0 0 0 0 112 1 281
1703 1575 1532 1646 1808 1940 2037 2110 2114 2212 2254 2258 1887 2104 2189 2091 1991 2066 2093 1904 1848 1870 1923 1880 1691 1363 1485 1722 1823 1936 1684 1439 1278 1421 1604 1526 1451 1477 1303 1223 1214 1156 973 704 502 217 26 8 0 0 0 0 0 0 0 0 0 0 0 29 6 449
1876 1881 1792 1636 1568 1760 1960 1957 2054 2069 2133 2149 1900 2089 2034 2056 2122 2120 2124 1970 1818 1830 1815 1925 1642 1589 1667 1666 1703 1784 1680 1401 1549 1456 1387 1329 1296 1326 1246 1038 882 817 774 673 465 138 12 36 0 0 0 0 0 0 0 0 0 0 0 6 24 557
1844 1901 1853 1755 1742 1820 1749 1860 1940 2036 1954 1996 1980 1963 1888 1841 1773 1864 2051 2042 1853 1734 1737 1823 1734 1393 1568 1633 1598 1671 1695 1509 1573 1377 1305 1139 1164 1171 1116 926 778 705 702 612 424 256 0 0 0 0 0 0 0 0 0 0 0 0 0 1 47 715
1816 1828 1751 1716 1757 1853 1867 1811 1829 1667 1732 1768 1830 1654 1475 1469 1314 1250 1628 1971 1964 1699 1635 1638 1703 1391 1273 1574 1519 1554 1440 1545 1443 1290 1206 940 868 1026 928 822 719 695 578 410 238 97 1 0 0 0 0 0 0 0 0 0 0 0 0 0 23 668
1720 1701 1727 1726 1802 1810 1790 1806 1721 1722 1454 1688 1698 1612 1410 1337 1214 1134 1352 1722 1897 1780 1601 1534 1495 1378 1203 1377 1378 1398 1157 1225 1353 1207 1140 854 656 780 788 697 560 378 301 175 58 66 29 0 0 0 0 0 0 0 0 0 0 0 0 0 6 336
1535 1658 1740 1811 1851 1711 1651 1710 1722 1747 1668 1771 1461 1468 1460 1403 1316 1180 1121 1384 1577 1643 1510 1397 1288 1160 1028 1127 1150 1131 1112 1128 1027 1199 1138 925 635 540 535 386 0 0 119 57 41 68 32 10 0 0 0 0 0 0 0 0 0 0 0 0 2 71
1584 1702 1725 1778 1614 1615 1599 1626 1678 1679 1655 1562 1464 1546 1429 1357 1366 1324 1248 1106 1076 1122 1138 1148 1092 999 876 780 926 1042 968 977 836 1000 1171 992 801 647 533 419 0 0 0 14 13 13 12 8 0 0 0 0 0 0 0 0 0 0 0 0 0 12
1756 1679 1599 1524 1468 1501 1535 1568 1574 1580 1498 1438 1452 1278 1366 1341 1087 1243 1183 1240 1212 1155 1089 1006 934 906 890 862 839 889 957 921 1007 923 903 964 743 564 423 369 376 186 0 0 45 54 50 13 28 12 0 0 0 0 0 0 0 0 0 0 0 2
1572 1438 1316 1350 1441 1445 1435 1372 1437 1465 1362 1317 1163 1130 1097 1165 1041 1198 1027 1101 1236 1290 1268 1103 1016 970 922 781 586 604 726 820 980 907 709 635 723 629 429 430 321 199 0 0 195 228 245 222 148 107 0 0 0 0 0 0 0 0 0 0 0 0
0 0 31 907 1174 1158 1129 1147 1142 1122 1263 1161 1078 966 919 1130 1150 1095 1062 1013 997 1190 1174 1168 1054 1016 866 723 535 614 754 733 903 818 840 770 524 578 449 343 378 335 602 213 138 256 276 246 251 248 0 0 0 0 0 0 0 0 0 0 0 0
0 0 0 562 831 264 0 0 0 0 0 899 830 885 1152 1210 1079 997 940 743 777 1051 1132 1019 920 958 775 752 739 611 728 789 658 632 576 685 711 576 430 320 251 253 278 277 42 198 261 273 252 238 167 257 0 0 0 0 0 0 0 0 0 0
0 0 0 197 0 0 0 0 0 0 153 685 600 402 469 909 1097 1062 666 723 867 881 692 577 794 760 534 762 662 748 659 724 659 811 716 692 714 758 444 151 139 160 207 218 149 160 0 239 211 246 266 0 0 0 0 0 0 0 0 0 0 0
0 0 0 0 0 0 0 0 0 0 0 0 0 0 0 0 851 1148 928 863 609 633 730 447 426 558 695 620 677 786 719 929 757 630 749 737 728 764 654 291 105 125 274 200 112 123 97 9 168 474 154 0 0 0 0 0 0 0 0 0 0 0
0 0 0 0 0 0 0 0 0 0 0 0 0 0 0 408 1080 967 210 127 371 327 276 299 591 622 694 736 596 661 635 463 580 827 850 846 798 798 780 564 348 179 142 199 231 123 68 180 258 455 461 141 0 2 2 0 0 0 0 0 0 0
0 0 0 0 0 0 0 0 0 0 0 0 0 0 0 0 0 0 0 0 0 0 0 0 0 564 701 598 490 344 483 584 736 791 792 770 698 784 721 750 646 380 196 148 249 113 128 163 189 370 462 438 392 89 10 4 0 0 0 0 0 0
0 0 0 0 0 0 0 0 0 0 0 0 0 0 0 0 0 0 0 0 0 0 0 0 0 0 0 89 359 110 242 446 446 569 794 774 733 607 556 535 442 293 254 319 264 148 162 214 167 173 405 445 431 419 304 112 2 0 0 0 0 0
0 0 0 0 0 0 0 0 0 0 0 0 0 0 0 0 0 0 0 0 0 0 0 0 0 0 0 0 0 0 32 252 296 130 251 458 506 573 563 617 586 526 402 383 296 234 338 405 255 196 268 312 366 346 369 360 225 29 0 0 0 0
0 0 0 0 0 0 0 0 0 0 0 0 0 0 0 0 0 0 0 0 0 0 0 0 0 0 0 0 0 0 0 294 249 236 304 279 233 253 348 467 420 625 533 569 476 385 318 209 386 292 177 271 266 258 306 276 249 253 0 0 0 0
0 0 0 0 0 0 0 0 0 0 0 0 0 0 0 0 0 0 0 0 0 0 0 0 0 0 0 0 0 0 0 0 10 86 116 243 224 201 167 232 298 354 470 487 395 415 422 256 276 372 309 218 235 226 168 126 191 197 14 0 0 0
0 0 0 0 0 0 0 0 0 0 0 0 0 0 0 0 0 0 0 0 0 0 0 0 0 0 0 0 0 0 0 0 0 0 0 0 16 22 154 35 55 43 58 193 131 236 238 329 411 360 410 285 279 313 248 176 143 186 168 36 0 0
0 0 0 0 0 0 0 0 0 0 0 0 0 0 0 0 0 5 0 0 0 0 0 0 0 0 0 0 0 0 0 0 0 0 0 0 0 0 0 13 14 14 20 28 158 182 309 180 229 260 245 282 412 333 219 180 177 210 152 170 0 15
0 0 0 0 0 0 0 0 0 0 0 0 0 0 0 0 0 0 0 0 0 0 0 0 0 0 0 0 0 0 0 0 0 0 0 0 0 0 0 0 0 3 5 3 54 50 89 105 111 125 148 78 109 268 19 130 65 137 113 80 0 40
0 0 0 0 0 0 0 0 0 0 0 0 0 0 0 0 0 0 0 0 0 0 0 0 0 0 0 0 0 0 0 0 0 0 0 0 0 0 0 0 0 1 1 1 0 0 0 7 40 94 171 186 88 69 94 28 114 24 119 110 0 0
0 0 0 0 0 0 0 0 0 0 0 0 0 0 0 0 0 0 0 0 0 0 0 0 0 0 0 0 0 0 0 0 0 0 0 0 0 0 0 0 0 0 0 0 0 0 0 0 0 0 0 66 182 134 130 142 208 76 18 8 94 86
0 0 0 0 0 0 0 0 0 0 0 0 0 0 0 0 0 0 0 0 0 0 0 0 0 0 0 0 0 0 0 0 0 0 0 0 0 0 0 0 0 0 0 0 0 0 0 0 0 0 0 0 13 96 90 115 120 98 52 18 11 4
0 0 0 0 0 0 0 0 0 0 0 0 0 0 0 0 0 0 0 0 0 0 0 0 0 0 0 0 0 0 0 0 0 0 0 0 0 0 0 0 0 0 0 0 0 0 0 0 0 0 0 1 2 6 18 131 169 157 118 108 24 6
0 0 0 0 0 0 0 0 0 0 0 0 0 0 0 0 0 0 0 0 0 0 0 0 0 0 0 0 0 0 0 0 0 0 0 0 0 0 0 0 0 0 0 0 0 0 0 0 0 0 0 0 0 3 11 8 20 35 50 46 30 33
0 0 0 0 0 0 0 0 0 0 0 0 0 0 0 0 0 0 0 0 0 0 0 0 0 0 0 0 0 0 0 0 0 0 0 0 0 0 0 0 0 0 0 0 0 0 0 0 0 0 0 0 0 1 15 22 38 43 35 41 53 39
0 0 0 0 0 0 0 0 0 0 0 0 0 0 0 0 0 0 0 0 0 0 0 0 0 0 0 0 0 0 0 0 0 0 0 0 0 0 0 0 0 0 0 0 0 0 0 0 0 0 0 0 0 0 0 2 29 47 54 49 42 21
0 0 0 0 0 0 0 0 0 0 0 0 0 0 0 0 0 0 0 0 0 0 0 0 0 0 0 0 0 0 0 0 0 0 0 0 0 0 0 0 0 0 0 0 0 0 0 0 0 0 0 0 0 0 0 0 0 7 22 20 12 20
0 0 0 0 0 0 0 0 0 0 0 0 0 0 0 0 0 0 0 0 0 0 0 0 0 0 0 0 0 0 0 0 0 0 0 0 0 0 0 0 0 0 0 0 0 0 0 0 0 0 0 0 0 0 0 0 0 0 3 25 33 31
2 0 0 0 0 0 0 0 0 0 0 0 0 0 0 0 0 0 0 0 0 0 0 0 0 0 0 0 0 0 0 0 0 0 0 0 0 0 0 0 0 0 0 0 0 0 0 0 0 0 0 0 0 0 0 0 0 0 0 12 27 35
51 5 0 0 0 0 0 0 0 0 0 0 0 0 0 0 0 0 0 0 0 0 0 0 0 0 0 0 0 0 0 0 0 0 0 0 0 0 0 0 0 0 0 0 0 0 0 0 0 0 0 0 0 0 0 0 0 0 0 3 10 22

ECMWFFLT2_con_mucape_024.txt.gz
CAPE
1885 2000 2224 2348 2275 2211 2151 2006 2025 2154 2007 1962 2070 2135 2085 2038 2187 1972 1664 1841 1583 1677 1909 1705 1116 1512 1494 1973 1822 1849 2035 1854 1663 1594 1765 1901 1892 1824 1736 1598 1561 1500 1502 1382 1150 918 845 757 762 774 389 273 227 488 0 0 0 0 0 53 82 2
1877 2007 2120 2203 2221 2157 2257 2190 2260 2146 2102 2065 1956 1934 1871 1838 1793 1784 1819 1544 1475 1486 1720 1501 1529 1456 1344 2003 1715 1864 2110 2052 1741 1434 1528 1811 1927 1827 1755 1585 1567 1487 1476 1353 985 523 292 637 560 572 324 149 0 0 0 0 0 0 0 15 42 47
1969 1949 2027 2037 2103 2247 2233 2245 2324 2289 2213 2228 2040 2020 1838 1858 1773 1736 1715 1543 1541 1528 1592 1524 1614 1641 1742 2000 1888 1983 2161 1950 1641 1313 1254 1799 1962 1840 1759 1646 1572 1486 1354 1199 812 0 0 0 27 261 44 0 0 0 0 0 0 0 0 14 0 186
1780 1841 1840 1938 2069 2104 2113 2192 2305 2371 2358 2230 1868 1935 2022 1886 1850 1778 1654 1554 1514 1558 1662 1712 1869 1698 2121 1904 1939 2082 2100 1522 1160 1073 926 1540 1917 1764 1709 1654 1538 1496 1184 1031 688 0 0 0 20 0 0 0 0 0 0 0 0 0 0 156 0 293
1709 1790 1661 1824 1966 1913 1961 2089 2197 2204 2264 2239 2076 1956 2091 2058 1918 1799 1667 1528 1446 1696 1767 1797 1741 1521 1265 1555 1765 1908 1786 1378 1152 1096 1038 1463 1485 1524 1580 1376 1406 1220 878 799 617 139 0 0 22 0 0 0 0 0 0 0 0 0 0 28 0 344
1554 1719 1690 1705 1748 1902 1893 1942 2039 2024 2118 2088 1896 1948 2116 2104 1933 1871 1766 1696 1681 1761 1789 1740 1732 1506 1261 1550 1623 1703 1648 1373 1054 1232 1188 1386 1367 1325 1259 1088 929 749 488 455 556 416 20 0 2 0 0 0 0 0 0 0 0 0 0 0 16 333
1664 1596 1604 1581 1559 1733 1836 1882 1814 1764 1692 1526 1658 1849 2084 2076 2039 1959 1866 1818 1774 1704 1642 1568 1621 1421 1220 1378 1449 1480 1604 1400 1209 1215 1312 1265 1071 994 915 792 579 440 242 312 414 449 48 0 0 0 0 0 0 0 0 0 0 0 0 0 21 317
1783 1822 1829 1809 1712 1601 1658 1549 1652 1609 1470 1723 1464 1522 1911 1938 2014 1997 1964 1756 1681 1670 1580 1475 1556 1474 1352 1382 1292 1345 1412 1424 1404 1335 1295 1233 902 866 764 641 444 226 152 202 370 278 0 0 0 0 0 0 0 0 0 0 0 0 0 0 1 233
1844 1928 1872 1768 1775 1744 1761 1715 1566 1527 1545 1407 1508 1526 1671 1685 1729 1670 1743 1727 1729 1718 1598 1492 1471 1536 1421 1380 1218 1236 1219 1119 1166 1128 1211 1183 948 672 587 536 283 126 201 0 132 43 8 0 0 0 0 0 0 0 0 0 0 0 0 0 0 67
1800 1858 1674 1627 1641 1785 1865 1781 1716 1541 1240 1315 1387 1452 1373 1418 1369 1225 1226 1533 1787 1758 1614 1462 1466 1550 1536 1372 1120 867 849 937 912 952 1025 1105 964 647 475 502 483 351 0 0 0 3 1 1 0 0 0 0 0 0 0 0 0 0 0 0 0 1
1740 1688 1512 1591 1669 1689 1680 1770 1698 1637 1532 1489 1473 1336 1381 1317 1217 1150 1108 1233 1488 1659 1716 1611 1443 1401 1348 1017 1058 841 804 679 765 725 797 1010 965 697 654 650 575 390 0 0 2 17 11 10 5 0 0 0 0 0 0 0 0 0 0 0 0 0
1521 1542 1567 1578 1588 1551 1537 1442 1515 1458 1512 1473 1446 1479 1406 1344 1349 1267 1073 783 1058 1250 1431 1479 1258 894 732 775 846 668 584 684 519 692 836 774 967 778 709 639 564 415 99 42 47 23 17 33 101 210 209 118 28 0 0 0 0 0 0 0 0 0
1539 1610 1604 1545 1572 1619 1581 1550 1606 1622 1592 1494 1320 1173 1040 1196 1310 1288 1138 966 1043 1084 1032 957 898 826 683 676 753 703 627 638 678 631 697 773 740 684 556 497 438 397 362 252 154 110 172 245 272 308 298 288 240 184 0 0 0 0 0 0 0 0
1599 1513 1488 1441 1528 1514 1503 1480 1484 1433 1402 1329 1050 1025 981 995 1056 1075 1030 942 910 877 866 888 842 695 616 648 542 538 622 563 639 748 613 746 593 589 514 487 418 383 518 274 254 259 248 296 306 310 317 315 318 283 84 0 0 0 0 0 0 0
1424 1208 1184 1185 1233 1254 1219 1237 1318 1263 1183 964 839 806 862 1018 1066 814 620 769 710 769 705 502 667 626 499 632 632 601 612 572 637 644 558 563 667 582 484 491 472 473 417 398 358 248 238 247 273 289 393 370 294 285 157 0 0 0 0 0 0 0
658 591 945 1004 692 235 0 0 0 0 405 894 707 789 960 1114 997 815 582 484 627 638 709 556 591 502 514 510 638 638 593 599 623 695 639 674 620 678 497 443 461 418 418 414 399 389 290 193 176 206 395 462 320 251 164 0 0 0 0 0 0 0
0 0 741 248 0 0 0 0 0 0 442 514 0 0 559 914 1011 973 685 448 336 491 528 425 443 522 561 439 502 639 673 633 566 576 596 627 647 704 598 548 439 441 383 365 320 303 310 229 157 159 356 457 438 142 78 0 0 0 0 0 0 0
0 0 0 0 0 0 0 0 0 0 0 0 0 0 20 356 810 545 0 0 0 44 318 522 564 510 470 504 435 534 575 484 422 385 519 577 592 604 666 691 584 243 161 201 221 187 210 189 115 104 308 414 434 380 78 0 0 0 0 0 0 0
0 0 0 0 0 0 0 0 0 0 0 0 0 450 599 700 571 226 0 0 0 0 0 0 0 0 423 506 436 221 56 282 312 397 334 421 504 610 633 689 679 406 204 225 271 128 189 186 122 91 273 371 344 403 358 0 0 0 0 0 0 0
0 0 0 0 0 0 0 0 0 0 0 0 0 0 0 0 0 0 0 0 0 0 0 0 0 0 0 0 32 52 219 107 28 0 122 345 502 523 513 554 361 327 241 241 229 262 254 226 324 158 198 287 375 378 438 346 79 0 0 0 0 0
0 0 0 0 0 0 0 0 0 0 0 0 0 0 0 0 0 0 0 0 0 0 0 0 0 0 0 0 0 0 225 222 141 39 113 68 492 386 480 505 340 303 304 274 419 363 286 302 368 275 256 244 260 324 410 401 347 185 49 0 0 0
0 0 0 0 0 0 0 0 0 0 0 0 0 0 0 0 0 0 0 0 0 0 0 0 0 0 0 0 63 96 93 120 157 115 14 10 208 262 33 252 282 97 96 282 292 409 421 350 357 280 232 138 75 192 355 337 323 303 279 153 0 0
0 0 0 0 0 0 0 0 0 0 0 0 0 0 0 0 0 0 0 0 0 0 0 0 0 0 0 0 0 0 0 0 0 1 0 0 0 34 160 114 208 282 248 108 267 222 334 340 320 340 352 297 268 182 189 227 242 248 250 258 169 0
0 0 0 0 0 0 0 0 0 0 0 0 0 0 0 0 0 0 0 0 0 0 0 0 0 0 0 0 0 0 0 0 0 0 0 0 0 0 146 0 181 159 179 19 181 141 213 322 360 374 383 294 243 180 134 119 101 142 154 149 0 0
0 0 0 0 0 0 0 0 0 0 0 0 0 0 0 0 0 4 0 0 0 0 0 0 0 0 0 0 0 0 0 0 0 0 0 0 0 0 0 0 0 0 0 90 63 85 128 156 189 188 179 210 189 113 113 126 116 167 0 64 0 28
0 0 0 0 0 0 0 0 0 0 0 0 0 0 0 0 0 0 0 0 0 0 0 0 0 0 0 0 0 0 0 0 0 0 0 0 0 0 0 0 0 0 0 0 0 0 106 87 100 127 192 132 66 102 152 74 63 119 88 74 88 0
0 0 0 0 0 0 0 0 0 0 0 0 0 0 0 0 0 0 0 0 0 0 0 0 0 0 0 0 0 0 0 0 0 0 0 0 0 0 0 0 0 0 0 0 0 0 0 0 0 0 0 57 72 81 42 62 120 92 60 45 127 165
0 0 0 0 0 0 0 0 0 0 0 0 0 0 0 0 0 0 0 0 0 0 0 0 0 0 0 0 0 0 0 0 0 0 0 0 0 0 0 0 0 0 0 0 0 0 0 0 0 0 0 0 1 35 107 118 113 85 61 49 18 85
0 0 0 0 0 0 0 0 0 0 0 0 0 0 0 0 0 0 0 0 0 0 0 0 0 0 0 0 0 0 0 0 0 0 0 0 0 0 0 0 0 0 0 0 0 0 0 0 0 0 0 0 0 0 0 67 135 155 35 1 5 1
0 0 0 0 0 0 0 0 0 0 0 0 0 0 0 0 0 0 0 0 0 0 0 0 0 0 0 0 0 0 0 0 0 0 0 0 0 0 0 0 0 0 0 0 0 0 0 0 0 0 0 0 0 0 0 18 11 0 8 55 12 3
0 0 0 0 0 0 0 0 0 0 0 0 0 0 0 0 0 0 0 0 0 0 0 0 0 0 0 0 0 0 0 0 0 0 0 0 0 0 0 0 0 0 0 0 0 0 0 0 0 0 0 0 0 0 0 0 2 4 3 4 1 1
0 0 0 0 0 0 0 0 0 0 0 0 0 0 0 0 0 0 0 0 0 0 0 0 0 0 0 0 0 0 0 0 0 0 0 0 0 0 0 0 0 0 0 0 0 0 0 0 0 0 0 0 0 0 0 0 0 1 2 1 2 2
0 0 0 0 0 0 0 0 0 0 0 0 0 0 0 0 0 0 0 0 0 0 0 0 0 0 0 0 0 0 0 0 0 0 0 0 0 0 0 0 0 0 0 0 0 0 0 0 0 0 0 0 0 0 0 0 0 0 1 4 4 3
0 0 0 0 0 0 0 0 0 0 0 0 0 0 0 0 0 0 0 0 0 0 0 0 0 0 0 0 0 0 0 0 0 0 0 0 0 0 0 0 0 0 0 0 0 0 0 0 0 0 0 0 0 0 0 0 0 0 0 2 1 1
0 0 0 0 0 0 0 0 0 0 0 0 0 0 0 0 0 0 0 0 0 0 0 0 0 0 0 0 0 0 0 0 0 0 0 0 0 0 0 0 0 0 0 0 0 0 0 0 0 0 0 0 0 0 0 0 0 0 0 6 14 11
0 0 0 0 0 0 0 0 0 0 0 0 0 0 0 0 0 0 0 0 0 0 0 0 0 0 0 0 0 0 0 0 0 0 0 0 0 0 0 0 0 0 0 0 0 0 0 0 0 0 0 0 0 0 0 0 0 0 0 6 13 28
0 0 0 0 0 0 0 0 0 0 0 0 0 0 0 0 0 0 0 0 0 0 0 0 0 0 0 0 0 0 0 0 0 0 0 0 0 0 0 0 0 0 0 0 0 0 0 0 0 0 0 0 0 0 0 0 0 0 0 0 13 24

ECMWFFLT2_con_mucape_027.txt.gz
CAPE
2117 2221 2541 2505 2466 2370 2138 1802 1746 1662 1789 1874 2141 2162 2098 2215 2226 1928 1937 2186 2032 2061 2240 2345 1589 1459 1341 1253 1185 1391 2027 1969 2139 2139 2100 2097 1993 2022 1736 1617 1510 1281 1339 1285 1095 900 895 945 819 498 464 452 480 505 1078 634 525 454 325 293 329 262
2066 2167 2145 2518 2465 2435 2374 1922 2421 1978 2002 1951 2024 1944 2049 2249 1693 2439 1934 2132 2158 2122 2230 2102 1197 1391 1984 1742 1469 1842 2182 2077 2101 2022 2144 2118 2115 2081 1906 1730 1611 1259 884 1158 1090 694 758 842 593 560 472 246 474 786 975 564 529 505 352 354 334 377
1904 2187 2215 2121 2208 2485 2521 2544 2390 1752 2437 2142 2082 1839 2352 2014 1980 2196 2232 2093 2154 2312 2016 1779 2050 1974 1706 1582 1472 1752 2026 1606 1970 1689 1949 1950 2082 2068 1969 1727 1634 1448 1013 798 705 680 242 158 338 148 336 352 457 593 603 523 530 571 408 378 301 440
1980 2085 2103 2136 2242 2417 2440 2616 2576 2601 2682 2653 2364 2421 2339 2133 2121 2061 2010 2219 2295 2267 2314 2304 1508 1324 1412 823 1472 1682 1690 1370 1347 1370 1723 1601 1868 2031 1887 1712 1584 1359 1100 961 698 438 66 36 78 118 309 194 258 499 440 423 458 526 532 410 244 498
1934 2026 2014 2131 2126 2144 2147 2278 2451 2522 2484 2372 2379 2388 2341 2285 2168 2058 2326 2378 2032 2290 2205 2297 2201 1746 1886 1583 2205 2203 1964 1590 1724 1932 1524 1818 1687 1135 1294 666 1009 1038 910 933 781 634 305 30 81 92 203 215 143 386 424 413 475 477 479 514 462 500
1729 1817 2007 2074 2061 2022 2045 2039 2094 2154 2441 2250 2174 2095 2206 2139 2165 2194 2240 2122 2284 2291 2096 2064 2269 2188 2166 2218 2175 2035 2099 2119 1999 1842 1520 1417 1555 1218 1129 761 980 814 776 827 750 723 631 249 15 74 118 298 216 196 460 499 454 475 479 529 662 404
1706 1754 1816 1730 1712 1849 1889 1990 1872 1892 1958 1913 1887 1635 1711 2027 2121 2146 2246 2304 2198 2050 2060 2126 2193 2139 2006 2168 2203 2130 2169 1892 1982 1942 1975 1842 1545 1267 1122 816 600 641 544 606 657 761 576 432 252 33 99 109 211 178 206 512 556 574 524 513 540 371
1685 1725 1927 1612 1750 1736 1766 1827 1700 2062 1572 1732 1344 1424 1726 1850 1859 1940 2131 2328 2177 1991 2077 2051 2320 2054 2019 2112 2242 2150 1919 1844 1908 1838 1910 1772 1458 1124 1000 808 658 499 356 568 580 612 448 148 125 95 93 83 88 258 186 239 533 538 524 517 544 500
1745 1774 1748 1728 1864 1842 1866 1904 1990 1496 1428 1287 1565 1510 1334 1396 1665 1639 1922 2060 2028 1924 2038 1799 1950 1766 1919 1834 1467 1189 1102 1099 1303 1291 1532 1600 1247 1030 866 731 576 452 298 614 530 452 273 82 65 44 29 20 40 34 244 238 422 455 472 574 615 524
1721 1748 1740 1741 1825 1674 1874 1914 1706 1595 1398 1652 1289 1178 1204 1254 1297 1320 1520 1831 1938 2058 1791 1736 1618 1692 1480 1302 1035 1025 883 806 610 1051 1009 1264 1282 1185 826 690 638 534 493 581 438 322 238 80 14 31 24 13 15 11 180 305 226 352 464 636 752 629
1629 1735 1623 1551 1614 1731 1656 1450 1636 1621 1400 1433 1293 1330 1272 1226 1390 1110 1231 1299 1256 1355 1372 1429 1432 1324 1143 984 797 825 667 617 667 822 816 820 1188 1032 1044 870 1003 898 481 141 324 176 116 88 56 50 59 20 30 75 72 298 302 226 332 510 629 750
1580 1680 1598 1321 1396 1452 1481 1458 1540 1492 1544 1391 1366 1272 1272 1320 1305 1056 1159 1035 1033 1066 1022 959 915 1004 911 1037 721 639 721 580 497 540 700 746 727 1089 1017 971 960 990 976 570 370 304 220 285 248 204 298 218 157 198 116 284 358 324 296 486 632 762
1473 1480 1392 1392 1401 1276 1307 1255 1319 1246 1338 1592 1412 1356 1276 1277 1242 1167 1160 948 850 936 858 801 814 882 999 921 758 610 606 602 579 587 572 705 780 1088 939 881 967 904 902 749 665 550 353 356 568 588 538 435 480 294 229 265 473 583 517 435 544 773
1273 1309 1320 1295 1205 1200 1145 1192 1326 1404 1439 1381 1279 1097 1088 971 1032 1106 955 842 940 776 663 679 663 652 638 692 694 625 568 749 694 543 444 570 742 707 825 960 1170 925 723 608 490 478 502 534 594 393 615 610 629 673 620 447 600 717 842 704 568 779
1236 1248 1158 1050 1139 1202 1109 1253 1362 1345 1197 1139 986 881 922 989 1042 852 536 603 615 598 666 611 619 616 850 595 758 732 708 677 646 632 626 694 693 694 602 791 762 1098 883 852 737 725 644 471 524 740 701 776 636 284 526 614 734 805 654 831 888 796
1121 1190 1159 1145 1021 1260 1140 792 821 853 815 753 739 826 804 1022 922 836 796 765 893 868 809 587 695 697 709 728 666 654 719 771 828 835 609 653 597 694 601 630 846 777 844 853 757 746 635 741 808 829 936 795 777 518 440 427 664 635 546 682 653 801
1021 923 740 696 699 464 1 56 223 431 424 444 596 544 594 923 944 924 843 767 714 837 836 777 847 776 856 827 696 766 753 690 814 790 714 813 621 652 582 604 443 619 788 769 880 968 766 732 702 760 750 857 759 752 702 430 359 626 420 599 663 658
964 896 722 238 1 0 10 70 166 276 269 158 207 347 426 847 815 624 553 683 797 926 871 775 789 710 728 684 706 762 696 586 700 742 791 656 606 596 624 544 448 354 525 813 686 708 817 827 721 621 784 781 1016 798 811 826 498 240 477 526 665 595
600 642 141 0 0 0 5 13 30 127 265 308 300 269 402 618 259 214 147 149 268 359 480 698 753 630 638 596 464 711 640 449 414 517 450 471 436 467 508 499 473 486 435 800 798 716 1076 858 648 597 616 674 677 748 778 837 588 302 435 568 421 505
221 158 0 0 2 27 114 155 152 151 158 148 244 208 135 113 99 47 18 56 52 194 64 290 621 970 701 299 366 542 608 448 426 420 506 481 505 541 558 443 405 428 400 409 638 712 699 713 1050 787 747 615 529 551 506 631 786 506 376 749 763 627
0 0 0 0 2 14 25 9 99 346 162 67 64 75 44 25 9 0 0 0 0 11 49 77 88 359 653 191 262 430 496 595 494 445 467 643 587 475 465 424 407 364 459 436 559 746 620 566 564 690 330 338 488 428 316 380 689 577 357 503 837 867
0 0 14 29 2 3 21 44 36 47 38 12 18 17 4 0 1 0 0 0 4 0 4 34 108 409 518 420 209 304 536 417 361 331 321 241 210 219 281 306 376 393 357 630 628 716 469 504 339 323 394 368 300 335 137 403 509 341 400 361 517 652
0 0 0 1 0 0 0 0 11 0 0 0 0 0 2 0 0 0 0 0 0 0 1 1 17 45 107 225 292 115 60 78 137 158 155 132 218 292 208 147 205 259 299 262 338 314 360 520 338 347 315 132 210 206 282 168 169 169 224 310 352 355
0 1 0 2 2 0 0 0 0 0 0 0 0 0 0 0 0 0 0 0 0 0 1 1 2 3 6 24 38 25 17 8 3 8 7 6 5 10 110 219 244 238 238 210 368 320 684 633 677 268 310 255 164 104 131 179 159 299 255 244 240 283
2 4 12 11 7 6 0 2 0 0 0 0 0 0 0 0 0 0 0 0 0 0 0 1 5 8 4 11 13 10 4 0 0 2 1 0 0 0 0 2 58 242 272 192 280 157 116 430 631 769 564 149 185 126 348 197 140 244 412 418 175 177
4 12 43 94 11 4 6 15 5 0 0 0 0 0 0 0 0 0 0 0 0 0 0 0 1 3 4 3 5 6 4 0 0 0 0 0 0 0 0 0 0 8 32 113 80 58 104 67 146 158 176 223 232 292 177 235 319 293 364 136 443 168
4 16 62 31 5 10 26 33 35 9 0 0 5 9 26 35 18 0 0 0 0 0 0 0 0 1 2 0 1 0 2 0 0 0 0 0 0 0 0 0 0 0 0 0 49 10 4 4 10 30 68 131 204 102 243 142 311 265 616 421 171 552
5 18 32 26 2 27 37 79 40 16 0 0 6 0 9 13 18 4 0 0 0 0 0 0 0 0 0 0 0 0 0 0 0 0 0 0 0 0 0 0 0 0 0 0 0 0 0 0 2 0 0 4 15 72 218 340 237 162 187 465 647 548
2 34 30 27 10 5 51 74 33 13 0 0 2 10 1 0 4 9 0 0 0 0 0 0 0 0 0 0 0 0 0 0 0 0 0 0 0 0 0 0 0 0 0 0 0 0 0 0 0 0 0 0 2 11 60 131 106 88 98 74 184 108
0 42 39 32 14 3 15 16 17 10 13 3 0 0 0 5 14 1 0 0 0 0 0 0 0 0 0 0 0 0 0 0 0 0 0 0 0 0 0 0 0 0 0 0 0 0 0 0 0 0 0 0 0 0 0 6 2 1 5 45 10 2
5 27 36 44 24 7 3 10 13 12 19 28 6 4 0 2 5 0 2 0 0 0 0 0 0 0 0 0 0 0 0 0 0 0 0 0 0 0 0 0 0 0 0 0 0 0 0 0 0 0 0 0 0 0 0 0 1 0 1 4 1 0
28 32 57 57 32 12 0 2 9 12 16 34 16 12 6 2 4 2 4 0 0 0 0 0 0 0 0 0 0 0 0 0 0 0 0 0 0 0 0 0 0 0 0 0 0 0 0 0 0 0 0 0 0 0 0 0 1 3 3 1 3 0
26 52 75 55 66 31 0 0 0 1 20 28 33 20 22 18 11 3 0 1 0 0 0 0 0 0 0 0 0 0 0 0 0 0 0 0 0 0 0 0 0 0 0 0 0 0 0 0 0 0 0 0 0 0 0 0 0 2 6 10 8 3
64 80 86 57 66 46 0 3 0 0 8 8 22 26 29 14 10 2 0 1 0 0 0 0 0 0 0 0 0 0 0 0 0 0 0 0 0 0 0 0 0 0 0 0 0 0 0 0 0 0 0 0 0 0 0 0 0 0 4 8 6 9
46 67 78 61 61 78 25 2 0 0 1 5 32 12 10 12 17 3 0 2 4 4 0 0 0 1 0 0 0 0 0 0 0 0 0 0 0 0 0 0 0 0 0 0 0 0 0 0 0 0 0 0 0 0 0 0 0 0 0 8 14 15
5 51 71 78 70 91 89 7 0 0 0 1 4 12 7 0 2 13 3 0 2 2 0 4 3 1 0 0 0 0 0 0 0 0 0 0 0 0 0 0 0 0 0 0 0 0 0 0 0 0 0 0 0 0 0 0 0 0 0 1 5 12
100 6 40 69 110 66 77 23 0 0 0 0 2 11 12 7 2 0 2 2 3 1 5 0 0 3 0 0 0 0 0 0 0 0 0 0 0 0 0 0 0 0 0 0 0 0 0 0 0 0 0 0 0 0 0 0 0 0 0 0 0 1

ECMWFFLT2_con_mucape_030.txt.gz
CAPE
1644 1728 1872 1539 1906 1410 1522 1573 1506 1552 2193 2329 2396 2447 2260 2421 2032 2002 1597 1667 1532 1655 1048 1779 1374 1486 1324 1545 1163 1268 1742 1831 2006 2108 2144 2043 1766 1823 1702 1554 1584 1480 1391 1276 1116 968 1012 724 608 507 579 716 686 528 1131 998 910 663 689 641 282 663
1840 1734 2002 1983 2206 2092 2013 1721 1692 1491 2142 2180 2015 1839 2384 2089 1413 2191 1456 1708 1985 1350 1110 1439 1715 1330 1758 1342 1193 1510 1477 1716 1749 1913 2263 2074 1944 1770 1735 1718 1496 1465 1415 1126 915 198 494 1110 544 732 555 130 807 892 962 1095 1159 644 683 750 481 838
2209 2328 1642 1605 1800 2055 2290 2366 2020 1535 1475 1905 1408 1551 1680 1682 1608 1540 1158 881 1095 1018 1137 733 1200 1584 1486 1182 1536 1319 1216 1238 1464 1560 2172 2178 1987 1850 1770 1723 1443 1299 1324 1163 389 334 359 219 129 59 177 991 536 747 849 994 1053 911 680 615 655 823
1991 2575 2444 2062 1488 1467 2177 1770 1526 1517 1687 1268 1328 1318 1470 1086 1110 1322 1598 1545 1159 1535 1382 1401 1288 1326 1284 1180 1226 1208 1221 1140 1262 1615 1693 2037 2024 1870 1774 1670 1420 1180 1273 772 383 340 351 137 79 50 165 215 366 813 842 990 896 890 736 486 488 649
2096 2382 2197 2524 2429 1262 1522 1539 1403 1710 1370 1285 1411 1435 1615 1066 1390 1277 1116 1428 721 1533 1348 1081 1795 1901 1286 1498 1678 1762 1698 1810 1615 1610 1837 1787 1581 1164 1186 808 1384 1174 544 342 269 350 351 136 206 68 109 296 359 677 722 826 945 988 705 596 942 708
1993 2208 2375 2266 2231 2125 1563 1233 1697 1863 1944 1397 1728 1751 1355 1740 1578 1619 1136 881 1645 1188 1485 1298 1271 1642 1430 1848 1771 1730 1531 1650 1286 1148 1366 1488 956 1212 603 319 462 532 246 287 367 326 434 338 128 60 40 206 325 504 581 931 1012 982 790 830 1391 812
1929 1871 2062 1915 2204 1982 2333 2172 1897 1941 1987 1974 1990 1900 1964 1759 1463 1243 1565 1144 1525 1149 1659 1558 1229 1128 1433 1823 1596 1564 1655 1703 1486 1399 721 1057 886 1492 557 275 312 367 248 289 423 296 490 368 205 95 53 103 189 350 542 698 932 1033 895 825 1038 627
1904 2084 2172 1902 1901 2024 2237 2409 2487 2010 1971 2180 2101 2051 1807 1622 1568 1438 1387 1090 1436 1359 1734 1680 1881 2024 1945 1659 1468 1362 1719 1871 1650 1482 1533 1565 1420 1306 1049 561 406 332 289 181 192 378 228 131 178 150 160 60 207 310 413 547 845 938 972 761 1023 644
2070 2121 2676 2630 2404 2161 2013 2147 2252 2287 2084 1908 1970 2026 1833 1837 1465 1161 961 990 1156 1756 1603 1779 1977 2040 1785 1562 2188 1980 2030 1922 2060 2018 1731 1649 1460 1379 1201 782 727 540 563 252 208 221 129 40 120 193 127 80 66 110 406 550 786 938 856 887 816 1008
2341 2425 2573 2479 2567 2527 2427 2337 2323 2248 2197 2075 1770 1936 1986 1843 1900 1075 1095 1222 1258 1658 1890 1985 1936 1744 1502 1747 2066 1864 1910 1908 1870 1960 2148 1835 1649 1586 1371 836 579 510 511 393 176 184 141 28 28 99 60 57 30 71 275 457 529 649 745 771 770 1066
2039 2110 1849 1459 1601 1333 1699 1670 2087 2441 2435 2165 2142 2046 1851 1962 1860 1578 708 1373 1619 1599 1871 2107 2151 2181 1944 2136 1997 1711 1876 1882 1797 1786 1990 2132 1849 1815 1321 1017 582 619 517 247 21 59 20 18 42 49 52 31 38 52 159 239 295 438 496 621 712 779
1916 2174 1920 1123 1245 1280 1364 1278 1404 1313 1336 1705 2457 2434 2193 2063 1925 1384 1328 1067 1569 1704 1651 1752 1672 1518 1764 1814 1661 1748 1863 1850 1693 1579 1459 1565 1666 1448 1515 735 479 829 886 464 136 54 0 42 38 53 90 38 44 80 78 192 224 300 400 478 460 638
1725 1927 1552 1474 1223 1216 1144 832 955 950 1030 1540 1510 1514 1500 1740 1836 1528 1492 1350 1147 1265 1314 1623 1767 1564 1426 1603 1642 1760 1813 1708 1480 1262 1138 1465 1571 1941 1418 828 454 478 260 184 184 154 31 5 105 140 254 214 119 85 57 82 152 189 372 423 318 325
1644 1660 1737 1494 1531 889 1012 913 905 1012 1192 1409 1331 1257 1353 1528 1913 1384 1069 1026 884 1051 1226 1727 1635 1637 1368 1642 1678 1641 1753 1640 1620 1442 983 895 1109 1522 1454 947 520 451 162 24 42 83 165 145 69 189 360 303 259 124 98 109 131 180 233 296 195 274
1605 1874 1803 1845 1683 1414 1315 966 1172 1162 1301 1426 1047 1063 1165 1218 1419 1546 1027 1031 1148 1224 1152 1267 1268 1469 1436 1455 1487 1449 1802 1743 1618 1402 1197 1005 939 1275 1359 1216 484 260 328 198 38 10 195 185 376 154 648 676 364 160 184 156 129 118 98 218 191 194
1951 1905 1703 1586 1599 1576 1466 1330 976 1122 1234 1298 876 899 901 1007 770 754 798 926 1105 1122 1030 1114 1004 1120 776 1500 1623 1732 1746 1682 1542 1553 1374 1320 957 984 1402 1441 820 390 282 193 79 285 373 390 626 643 550 887 726 628 239 112 97 84 64 75 88 130
2050 1784 1603 1439 1390 1512 1407 1258 1032 1046 1157 966 653 684 698 875 700 674 685 637 905 884 851 790 1015 793 859 895 1023 1470 1584 1753 1708 1635 1627 1553 1373 1224 1324 1184 1314 481 330 254 269 373 465 1013 982 892 511 543 641 786 728 232 90 84 51 66 97 93
2161 1971 1743 1724 1709 1537 1129 928 772 736 743 513 545 447 443 479 507 327 323 440 724 847 738 760 795 775 947 666 647 853 1454 1659 1574 1669 1610 1656 1459 1357 1317 1266 1244 975 495 410 424 424 621 664 663 573 674 587 1122 965 1078 957 440 189 122 83 108 116
2140 2048 1916 1645 1350 1162 1144 782 703 592 499 322 355 420 340 240 209 209 326 336 278 311 352 418 432 445 402 565 594 465 867 1081 1277 1494 1501 1449 1455 1394 1286 1336 1178 1242 1349 1056 584 485 832 1033 785 567 565 568 726 1049 876 1187 1185 693 288 58 27 43
1928 1635 1394 1036 558 452 410 368 344 214 206 283 271 257 229 161 168 138 195 87 62 128 164 196 207 203 240 167 334 341 572 686 769 1041 1447 1294 1267 1318 1431 1374 1154 1129 1204 1147 1229 994 681 1097 1139 1496 1715 1097 884 733 1218 539 1243 1222 274 158 43 25
1604 1304 696 416 334 275 238 136 118 162 237 141 126 235 244 159 143 162 40 6 25 19 6 0 1 92 299 60 159 373 536 525 647 764 834 1310 1512 1602 1624 1396 1169 1098 1144 1095 1226 1408 1392 1270 1343 1390 1464 1659 1832 1115 1138 1088 827 1020 644 219 61 33
1213 892 473 345 262 144 52 14 2 23 15 0 0 23 80 148 175 142 54 14 2 0 0 0 0 65 85 78 98 183 469 371 506 567 764 696 1059 1103 1132 1281 1273 1247 1004 997 487 1385 1094 1115 941 934 473 595 904 1780 1476 1414 806 866 387 388 227 226
838 694 490 328 201 156 117 57 18 5 0 17 155 122 92 84 102 21 4 0 1 3 3 0 1 16 170 168 225 144 153 239 247 430 602 622 714 742 1040 1040 1071 1069 928 859 1033 1037 1172 895 781 1100 1136 1020 755 1303 1706 407 412 473 621 475 476 462
818 580 445 389 74 231 188 376 369 150 34 0 8 82 70 27 4 0 0 0 0 0 2 0 0 0 4 21 60 67 44 59 98 157 218 236 240 436 848 1118 1150 877 733 546 396 536 602 841 427 731 468 514 1077 654 508 744 425 275 298 1020 787 793
714 594 388 283 411 338 170 188 168 143 72 82 12 4 7 3 1 0 0 0 0 0 0 0 0 0 2 7 7 6 11 15 15 25 8 31 33 48 102 261 588 806 701 482 429 559 477 607 623 480 583 641 702 717 696 873 626 690 254 320 868 626
518 587 254 426 254 25 7 14 4 2 0 0 0 2 0 3 0 2 0 0 0 0 0 6 3 0 0 0 1 2 4 5 5 2 2 8 18 21 25 37 31 78 239 327 677 563 564 186 392 317 599 587 386 686 946 850 421 545 553 372 454 585
444 412 330 401 199 4 11 16 20 1 0 0 0 1 5 10 23 2 0 1 0 2 0 4 3 2 0 0 1 3 0 1 0 0 0 0 0 0 0 2 5 12 20 30 92 142 238 196 425 337 269 133 364 751 635 727 398 573 508 963 562 610
382 247 433 543 122 12 5 14 15 2 0 0 0 4 14 22 9 0 0 0 3 2 0 0 0 0 0 0 0 0 0 0 0 0 0 0 0 0 0 0 0 0 0 10 47 28 55 61 155 89 102 160 192 201 182 386 280 323 343 540 536 553
369 281 616 503 174 28 7 27 22 3 0 0 0 0 0 1 1 1 2 0 0 1 1 0 0 0 0 0 0 0 0 0 0 0 0 0 0 0 0 0 0 0 0 0 0 1 2 4 12 10 41 109 57 77 113 168 118 139 148 213 497 340
365 375 479 553 222 148 48 106 26 0 0 0 0 0 0 0 3 3 0 2 1 0 0 0 0 0 0 0 0 0 0 0 0 0 0 0 0 0 0 0 0 0 0 0 0 0 0 0 0 0 0 0 1 0 11 18 56 20 66 101 111 152
414 336 444 530 268 272 206 337 127 30 2 3 0 0 0 6 4 7 0 0 0 0 0 0 0 0 0 0 0 0 0 0 0 0 0 0 0 0 0 0 0 0 0 0 0 0 0 0 0 0 0 0 0 0 0 0 0 0 0 2 2 1
478 363 544 516 366 411 281 345 186 209 13 13 1 0 1 3 22 12 9 0 0 0 0 0 0 0 0 0 0 0 0 0 0 0 0 0 0 0 0 0 0 0 0 0 0 0 0 0 0 0 0 0 0 0 0 0 0 0 0 0 0 0
521 479 590 561 565 505 443 296 316 370 165 48 22 0 0 4 13 2 9 0 0 0 0 0 0 0 0 0 0 0 0 0 0 0 0 0 0 0 0 0 0 0 0 0 0 0 0 0 0 0 0 0 0 0 0 0 0 0 0 0 0 0
614 599 623 649 641 617 575 418 380 452 302 175 155 9 4 6 11 0 0 5 2 0 0 0 0 0 0 0 0 0 0 0 0 0 0 0 0 0 0 0 0 0 0 0 0 0 0 0 0 0 0 0 0 0 0 0 0 0 0 0 0 0
679 733 649 665 613 631 615 563 579 560 400 311 277 46 7 7 34 6 3 5 0 0 0 0 0 0 4 5 3 2 0 0 0 0 0 0 0 0 0 0 0 0 0 0 0 0 0 0 0 0 0 0 0 0 0 0 0 0 0 0 0 0
734 883 732 679 628 660 658 649 776 724 650 467 218 113 26 8 56 26 18 0 0 0 0 0 0 4 13 18 30 18 0 0 0 0 0 0 0 0 0 0 0 0 0 0 0 0 0 0 0 0 0 0 0 0 0 0 0 0 0 0 0 0
688 824 782 699 665 656 742 803 886 923 817 734 573 412 210 218 260 168 58 14 0 2 0 0 4 46 16 24 31 23 0 0 0 0 0 0 0 0 0 0 0 0 0 0 0 0 0 0 0 0 0 0 0 0 0 0 0 0 0 0 0 0

ECMWFFLT2_con_mucape_033.txt.gz
CAPE
1444 1661 1822 1902 1743 1913 2008 1848 1997 2326 2365 2257 2049 2091 2268 1962 1754 1419 1195 1047 1333 1433 1494 1397 1750 1619 1756 1749 1756 1494 2178 1862 1656 1713 1573 1584 1528 1523 1506 1410 1326 1089 956 987 718 636 636 678 766 358 900 637 847 728 1353 853 735 350 666 340 475 529
1906 1716 1803 2344 2095 1436 1928 1966 2109 1747 1672 2175 2198 2020 1886 1197 1595 1791 1152 1349 1402 1908 1239 1332 1756 1283 1654 1427 1624 1476 1762 1626 1797 1830 1714 1652 1586 1601 1600 1648 1363 1301 1234 866 930 124 401 754 652 475 283 388 482 729 1120 1156 914 664 550 769 678 807
1658 1537 2245 2012 2054 1753 2146 1834 1777 1819 1998 1512 1573 1427 1124 1589 1022 1737 1490 1600 1341 1733 1670 1842 1660 1681 1313 1456 1069 1732 1544 1701 1783 1810 1901 1782 1729 1812 1654 1596 1440 1391 1131 1108 262 97 352 321 62 202 483 91 418 679 944 1237 1163 1014 506 465 463 991
1726 1717 1624 1808 1561 1285 1840 1900 2162 2294 2156 2113 1716 1533 1873 1845 750 935 1528 1034 1011 1422 1613 1537 1542 1585 1530 1584 1532 1298 1315 1498 1608 1697 1709 1745 1865 1890 1845 1650 1482 1501 1232 592 213 231 292 255 237 24 0 57 323 790 927 1117 1116 940 792 491 627 1160
1882 1704 1460 1550 1375 1517 1690 1687 1764 2150 2210 1786 1757 1184 1994 1424 1326 1060 1030 1040 1242 953 1142 1302 1369 1378 1581 1491 1428 1704 1478 1712 1322 1734 1754 1085 1436 1133 1505 1020 1380 1336 657 499 338 245 458 220 136 206 80 162 340 625 541 1026 1111 1084 610 1008 600 1068
1761 1634 2012 2032 2144 1718 2128 2056 2195 2145 1920 1780 1490 1381 1184 1320 1062 840 970 1047 1234 962 882 991 1139 1352 1605 1357 1312 1501 1699 1547 1409 1204 1374 1285 798 1353 918 385 731 561 382 283 269 260 450 424 260 144 117 102 296 390 352 581 1043 1166 962 1216 844 1253
1472 1388 1499 1806 2024 1730 1605 2108 2334 1766 1637 1659 1288 1400 1466 1273 1014 1118 1025 1157 1055 1151 1064 943 1030 1231 1423 1027 1091 939 1026 995 1032 798 1220 752 1378 1010 878 686 406 487 391 345 305 306 323 600 448 122 40 120 159 159 321 446 688 1195 928 1100 1234 1375
1441 1317 1193 1246 1779 1840 1503 1511 1521 1491 1497 1430 989 1212 943 1068 1210 1368 1251 1398 1586 1406 991 913 918 1132 1499 1576 1511 1261 1269 1299 1314 968 1468 1496 1331 1373 1458 952 313 264 420 374 220 250 344 326 515 422 126 39 113 96 308 246 493 1156 1220 1109 1086 1513
2080 2283 1652 980 1266 1726 2002 1359 1133 1268 888 836 914 864 822 893 1118 1120 1612 1453 1224 1340 1271 1162 1201 1234 1372 767 909 1292 1106 1200 700 1813 1450 1078 1030 1953 1196 1027 700 733 685 496 390 259 148 168 289 263 96 136 144 57 67 238 667 788 1254 1167 1529 1131
2422 2345 2438 2177 1086 1297 1452 1059 1178 1076 1021 1042 957 922 894 788 1215 1718 1805 1235 1465 1543 1832 1583 1549 1031 920 980 1117 882 1008 1061 1004 1063 900 1169 1244 1324 1333 1289 1165 448 352 641 372 212 117 86 108 180 106 40 108 27 30 244 371 697 1045 1138 1141 1180
2384 2428 2181 1704 1479 1638 1909 1514 1315 1139 1270 1240 927 1563 1110 1056 1502 1230 1746 1836 1650 1312 1400 1724 1507 1067 627 614 1169 1172 1249 1236 1032 1122 1263 971 1459 1955 1608 1323 999 593 567 628 435 349 134 114 58 38 24 6 28 48 10 152 254 328 656 805 879 1318
1838 1962 1469 869 850 782 758 794 1112 785 1488 1225 1746 929 1262 1006 1087 1618 1514 1921 1211 1049 1322 1522 1163 1218 1118 903 1078 1034 1222 1194 832 1359 1394 1431 1476 2169 1918 1369 1054 658 810 1265 308 214 264 10 13 12 49 4 0 46 24 115 116 194 245 634 729 1256
1812 1954 1114 862 788 644 528 387 403 329 542 1032 889 1515 1383 1406 1507 1966 1752 1712 1546 1729 1810 1152 1751 1741 1581 1456 1258 1305 1301 1350 1300 1722 1441 1556 1800 1838 1668 1508 1086 774 870 876 654 302 151 15 0 0 51 86 10 6 39 44 86 153 304 436 462 810
1608 1231 1238 1100 900 610 542 426 292 272 484 584 531 563 959 1726 1460 1644 1971 1937 1970 1912 1643 1667 1140 1415 1626 1484 1483 1514 1225 1265 1436 1478 1471 1654 1450 1817 1739 1419 1026 531 444 359 264 292 322 153 10 0 2 87 130 52 29 40 92 109 195 173 334 364
1571 1474 1174 1187 694 743 709 536 386 512 821 922 673 577 778 1632 1798 1894 1714 1825 1569 1695 1767 1280 1092 1456 912 814 1451 1477 1188 810 1121 1134 992 1412 942 1567 1324 1212 1001 619 332 288 108 93 142 143 78 30 18 98 121 114 127 87 96 100 117 237 371 202
1910 1733 1556 1526 1220 1136 881 757 737 757 791 790 521 464 536 623 631 748 769 949 1270 1548 1297 1471 1298 1289 1224 950 1151 1416 1150 1219 905 900 948 1304 1182 902 900 965 988 761 524 274 222 110 33 142 232 202 281 531 529 423 323 182 175 51 104 168 175 209
1952 1867 1654 1412 876 980 1064 781 770 687 581 505 408 372 337 313 312 318 507 585 1019 968 866 1212 1389 1362 1449 1446 1321 967 917 1064 1246 853 1000 883 1180 943 899 982 818 865 779 496 234 207 195 229 347 538 723 836 790 738 685 420 179 118 81 86 104 155
1802 1651 1628 1277 1314 1139 902 784 615 588 455 422 389 306 301 264 330 348 416 669 815 958 965 959 717 854 1291 1346 1027 961 1042 1411 1293 1078 984 869 877 904 858 757 772 716 646 676 377 379 457 504 706 826 893 347 514 436 410 530 359 201 140 86 122 106
1757 1901 1754 1442 1171 1063 728 692 370 293 114 17 105 280 196 315 287 285 477 531 548 535 719 581 636 468 450 756 783 1064 1196 1547 1499 1004 913 823 699 754 933 940 973 895 804 895 922 1041 694 711 731 615 434 679 675 1022 1023 660 619 901 256 191 152 117
2012 1592 1492 1332 835 669 537 390 283 286 206 324 280 209 224 227 221 260 197 254 226 334 232 265 313 416 366 219 273 363 706 1081 1222 798 957 782 688 725 804 835 853 790 835 905 931 709 842 882 890 739 1054 1316 638 998 1444 1626 809 667 797 389 206 133
1867 1429 980 833 554 485 444 312 279 266 162 68 169 152 305 260 212 304 301 121 123 116 18 22 43 83 188 30 28 279 326 392 280 484 671 886 792 670 683 803 868 868 760 666 601 838 628 574 848 1016 698 895 1547 1480 1631 911 802 1250 566 659 508 94
1470 975 829 646 588 522 312 209 149 95 84 0 0 106 148 324 294 137 91 9 0 0 0 38 66 309 50 95 49 63 132 391 360 347 605 685 1293 1338 803 735 690 887 790 818 588 704 565 558 555 431 427 480 886 754 1301 1089 1021 758 180 88 211 99
1203 741 641 738 435 282 265 103 148 18 72 57 183 164 168 162 182 46 6 0 7 100 109 19 48 23 52 105 124 37 147 287 349 382 404 497 851 1240 979 1075 882 1246 817 553 622 600 614 707 435 513 493 533 720 666 1073 867 961 898 165 6 454 734
1115 773 594 587 316 396 285 369 184 60 21 5 220 272 62 78 17 5 44 26 36 103 68 9 0 0 0 10 11 1 0 4 117 124 178 220 302 440 998 922 474 576 433 625 817 804 926 595 616 654 410 521 594 440 282 665 679 989 790 782 680 1059
1004 940 699 363 604 306 343 543 282 230 338 186 6 0 14 5 6 11 0 34 18 21 38 13 1 0 0 0 0 0 0 2 2 0 0 12 50 102 92 262 476 464 687 1052 596 874 643 562 908 554 682 560 672 211 347 726 942 1207 1091 808 570 806
1004 894 758 538 760 174 25 80 70 8 0 0 4 29 44 18 0 19 11 0 8 85 50 39 14 14 1 0 0 0 2 1 2 0 0 6 2 2 1 20 30 106 578 588 968 427 508 392 404 492 419 548 435 577 948 601 573 397 1044 686 1103 1179
1056 822 823 700 558 60 31 73 3 0 0 0 0 14 35 28 22 2 0 45 10 13 30 78 22 7 7 2 5 0 0 0 0 0 0 0 0 0 0 0 1 5 8 25 133 349 391 485 508 394 332 272 214 510 576 950 699 454 727 1018 699 1147
972 868 887 764 280 145 116 52 10 0 0 0 8 78 15 43 2 1 12 16 13 12 10 6 2 0 0 0 0 0 0 0 0 0 0 0 0 0 0 0 0 0 0 1 15 44 25 174 94 99 273 318 378 388 334 172 310 457 538 532 542 372
937 855 1057 908 203 200 132 87 64 3 0 4 42 25 3 1 0 2 19 7 10 2 4 1 0 0 0 0 0 0 0 0 0 0 0 0 0 0 0 0 0 0 0 0 0 1 7 3 4 12 6 25 96 221 360 269 373 264 217 175 644 491
909 885 1153 906 277 198 192 133 69 1 1 6 4 0 0 0 2 6 29 34 8 9 2 0 0 0 0 0 0 0 0 0 0 0 0 0 0 0 0 0 0 0 0 0 0 0 0 0 0 0 0 0 0 0 1 248 310 268 206 137 138 124
963 841 1245 959 313 238 256 233 111 10 4 10 0 0 7 1 2 8 5 12 6 3 1 0 0 0 0 0 0 0 0 0 0 0 0 0 0 0 0 0 0 0 0 0 0 0 0 0 0 0 0 0 0 0 0 0 0 2 0 0 0 2
1042 831 1291 979 410 266 306 307 207 78 24 53 21 8 45 1 9 16 7 8 14 3 6 1 0 0 0 0 0 0 0 0 0 0 0 0 0 0 0 0 0 0 0 0 0 0 0 0 0 0 0 0 0 0 0 0 0 0 0 0 0 0
1086 861 1190 1107 534 483 300 427 342 189 79 83 83 6 104 17 26 18 12 4 9 6 12 1 2 0 2 0 0 0 0 0 0 0 0 0 0 0 0 0 0 0 0 0 0 0 0 0 0 0 0 0 0 0 0 0 0 0 0 0 0 0
1152 1007 1131 1110 684 572 385 491 476 415 134 189 35 24 31 33 42 2 30 7 10 3 8 6 5 4 9 0 0 0 0 0 0 0 0 0 0 0 0 0 0 0 0 0 0 0 0 0 0 0 0 0 0 0 0 0 0 0 0 0 0 0
1168 1107 1151 1182 851 694 561 474 452 517 278 209 144 32 5 10 44 3 13 23 4 1 4 1 0 0 15 0 3 0 0 0 0 0 0 0 0 0 0 0 0 0 0 0 0 0 0 0 0 0 0 0 0 0 0 0 0 0 0 0 0 0
1202 1197 1225 1202 999 793 683 552 408 504 490 328 221 52 10 4 51 12 4 42 7 0 1 2 4 2 37 4 26 11 0 0 0 0 0 0 0 0 0 0 0 0 0 0 0 0 0 0 0 0 0 0 0 0 0 0 0 0 0 0 0 0
1202 1289 1213 1305 1170 925 810 705 564 502 580 510 438 237 57 26 154 84 33 16 15 0 1 1 4 10 66 10 57 42 1 0 0 0 0 0 0 0 0 0 0 0 0 0 0 0 0 0 0 0 0 0 0 0 0 0 0 0 0 0 0 0

ECMWFFLT2_con_mucape_036.txt.gz
CAPE
1706 1521 1446 1586 1729 2176 2317 2451 2463 2362 2345 2174 1683 1471 1254 1226 1323 1446 1576 1530 1460 1719 1546 1415 1918 1554 2091 1618 1696 1548 1805 1765 1776 1687 1617 1567 1496 1645 1721 1609 1471 1352 1160 928 858 757 466 316 230 554 176 411 513 708 596 1085 1277 702 556 757 570 689
1778 1910 1838 1928 1878 1976 2165 2073 2065 2079 2158 2056 1612 1378 1153 1098 1201 1273 1244 1405 1779 1612 1616 1821 1834 1803 1929 1624 1766 1779 1923 1814 1766 1618 1686 1609 1542 1580 1555 1526 1362 1130 986 972 942 460 443 538 626 503 434 555 556 725 898 898 1278 1023 531 534 664 942
1788 1721 1654 1532 1656 1955 2022 1929 1557 1568 1543 1601 1295 1165 1101 1110 918 1073 1364 1513 1728 1702 1679 1627 1818 1752 1646 1602 1722 1636 1864 1671 1738 1670 1679 1807 1661 1604 1558 1537 1359 1136 980 898 848 109 155 106 214 543 555 532 47 658 769 1108 1307 792 472 440 411 1047
1803 1668 1613 1602 1909 1690 2026 1845 1733 1860 1538 1908 1280 880 983 821 940 941 1207 1356 1576 1796 1748 1782 1534 1396 1089 1612 1462 1728 1814 1659 1744 1631 1638 1678 1680 1692 1626 1575 1437 1264 1112 659 69 36 38 236 16 79 20 106 295 495 1000 1079 1174 893 542 523 788 1147
1802 1749 1580 1649 1800 1828 1871 1648 1448 1195 1272 1270 1047 917 830 1018 773 972 997 963 986 1235 1485 1619 1575 1367 1126 1272 1572 1676 1681 1528 1437 1577 1791 1321 1585 1256 1668 1248 1145 1346 804 455 269 141 176 208 102 86 0 0 141 682 806 1161 1233 1294 559 509 861 1192
1798 1770 1682 1755 1968 1937 1949 1713 1607 1420 1154 1324 1309 1022 1038 923 827 917 834 1175 1249 1102 1300 1297 1603 1700 1229 1198 1166 1650 1566 1577 1213 1102 1450 1415 1210 916 1218 744 944 1060 905 605 509 280 346 460 536 198 53 0 302 703 664 807 1027 1458 598 639 1117 1265
1797 1555 1523 1397 1523 1676 1590 1955 1639 1232 1449 1095 1206 1291 1316 1145 1132 1171 1132 1280 1772 1506 1163 1420 1379 1517 1440 1115 990 1348 1283 921 1058 1185 1451 1251 1109 1364 1372 1000 1197 895 806 578 336 221 400 536 452 378 184 170 139 350 506 488 1153 1222 743 721 1128 1215
1810 1785 1183 1302 1317 1481 1538 1585 1825 1382 1168 1123 1086 1196 1299 1259 1161 928 1352 1619 1661 1601 1455 1382 1448 1392 1321 1668 1296 1523 1425 1190 1464 1308 987 1643 1310 1016 907 1007 1320 565 651 316 401 243 207 204 478 379 488 64 214 173 445 472 886 1043 952 808 1054 1351
1890 2146 1434 1221 1100 1286 1567 1812 2027 1753 1471 1252 1221 1449 1495 1308 1458 1192 1212 1118 1556 1915 1656 1666 1368 1294 1344 1384 1640 1391 1111 928 1477 1503 1162 1239 1056 732 805 1390 1465 1016 722 367 234 290 252 141 400 502 326 193 79 36 153 379 936 1164 1101 878 820 1330
1584 1436 1691 1227 916 971 1384 1499 1549 1875 1518 1527 1406 1372 1375 1159 1209 1190 1205 1203 1451 1570 1388 1262 1128 1480 1101 1679 1542 1213 1114 887 1189 1582 1625 1682 1072 1530 1301 1778 1378 979 839 551 375 227 474 193 221 223 290 209 90 118 148 172 718 880 889 1065 919 1088
1766 1908 1323 1557 1126 1282 1416 1613 1443 1531 1540 1636 1299 1187 1251 1014 1206 1483 1535 1270 1394 1328 1095 1231 1442 1524 1852 1734 1301 1094 1139 974 867 774 1347 1105 1163 1791 1462 1173 882 1098 986 745 626 333 210 150 139 237 145 65 57 60 39 114 277 696 857 1132 1115 917
1414 1259 1127 1225 1516 1349 1379 1462 1479 1465 1946 1502 1220 1048 1080 997 1297 1390 1304 1628 1672 1632 1391 1526 1528 1548 1591 1335 1192 1058 683 1035 657 1148 988 923 836 1054 986 1277 852 766 876 1334 891 624 354 593 176 93 26 54 10 28 12 44 192 287 645 1099 1209 973
1427 978 960 1085 1512 1506 1593 1584 1803 1832 1438 1500 1227 1070 1263 1123 1369 1475 1376 1621 1846 1363 1045 1303 1294 1266 1343 1557 1583 1080 851 909 999 870 773 968 983 872 832 952 930 646 741 1086 1175 868 474 339 147 30 4 6 4 86 1 25 115 143 299 836 1309 999
1610 1440 1368 1179 1316 817 804 1127 1563 1592 1646 1806 1520 1104 1332 1222 1450 1878 1589 1690 1509 1188 1068 1143 898 1540 1287 1159 1029 835 787 1326 1116 964 969 828 966 845 785 774 674 842 1061 706 776 735 526 795 194 91 37 6 11 121 106 10 77 11 385 282 1473 1303
1604 1274 1286 1433 1434 928 1027 1019 878 1159 1369 1149 1147 1025 911 947 1042 1827 1836 1305 1342 1039 1050 1231 1024 1573 1579 1378 906 1034 819 861 754 992 951 1113 851 811 806 915 1185 1284 942 847 436 278 293 287 415 244 152 323 145 54 207 52 52 135 195 366 603 1386
1810 1809 1573 1446 1316 1136 1181 1216 1082 1130 1104 756 889 914 892 909 984 1354 1339 1644 1194 1177 1053 1304 1202 1767 1647 1484 1261 1043 907 965 896 920 993 1035 949 949 844 940 1058 1265 836 570 546 306 221 236 293 507 435 930 740 788 614 367 240 106 28 238 224 427
1728 1579 1420 1126 1183 1196 1277 1340 1105 914 837 1088 838 781 792 836 876 938 1035 1216 1525 1348 1364 1018 1216 1288 1798 1622 1165 883 835 872 927 1031 1018 918 1039 882 1000 934 1130 1120 1160 916 523 364 503 482 351 974 1015 694 633 605 748 526 474 403 474 93 138 231
1724 1530 1508 1563 1467 1427 1051 930 922 932 870 455 440 739 708 500 633 738 786 976 1044 1358 1538 1179 1200 1049 1628 979 837 768 655 676 1023 1038 970 998 1008 1010 934 878 891 930 925 909 806 1222 848 445 52 337 771 714 1138 1240 846 874 698 655 603 486 376 374
1852 1744 1607 1623 1620 1362 1275 544 307 538 183 362 448 225 781 481 543 677 784 846 990 1280 825 825 815 755 1442 1053 1135 848 861 566 854 832 896 874 952 974 971 898 941 827 799 673 649 862 988 987 545 561 730 961 848 1238 1213 1232 776 883 859 493 429 524
1983 1742 1530 1380 1020 667 671 639 491 321 556 616 510 494 708 408 530 471 398 684 509 999 456 836 876 872 1145 780 421 1340 897 803 859 783 928 729 950 898 1000 873 823 776 893 770 662 938 1057 867 690 630 414 665 946 887 1543 1020 877 661 1356 718 437 326
1776 1608 1212 978 942 746 775 630 745 543 116 340 332 481 835 741 422 369 310 124 138 271 170 131 333 532 658 405 118 700 818 842 604 301 912 839 816 882 1079 937 861 871 897 725 728 792 775 754 577 515 828 771 816 976 1099 970 701 389 430 688 468 401
1637 1444 1419 1237 1322 996 916 413 545 325 264 103 14 298 397 474 355 505 410 266 488 126 95 450 95 183 0 482 108 1041 436 661 898 974 1345 1285 1077 907 872 738 845 787 719 709 627 648 706 557 493 418 524 502 718 1204 1290 1457 1385 676 990 209 14 351
1340 1280 1292 1345 935 1072 724 850 806 364 682 364 459 544 237 319 334 3 144 172 377 492 300 77 82 83 498 217 259 462 659 855 548 644 879 1016 942 687 746 722 735 646 670 739 709 669 660 683 722 646 535 427 563 819 1207 1232 1582 1449 872 246 65 136
1272 1167 1303 1090 1073 960 1031 757 833 798 869 726 371 274 352 306 115 196 42 44 105 536 435 255 130 6 2 11 239 656 45 260 392 378 1250 754 1041 850 544 477 311 262 484 420 584 586 692 674 572 556 381 468 635 627 514 857 882 1538 1485 1143 1023 826
1170 1134 1044 1015 962 859 874 807 872 813 287 172 242 274 243 161 148 0 171 202 147 187 104 145 116 10 4 15 17 34 160 59 21 59 35 339 317 258 451 637 612 630 688 593 432 520 436 628 572 803 500 411 491 510 526 818 980 1204 1318 1040 882 1191
1188 1024 924 1057 848 875 920 711 663 526 288 209 289 356 396 53 128 281 0 187 182 110 132 328 0 0 11 40 72 30 0 0 0 0 0 1 0 4 0 0 102 876 991 546 545 556 395 454 447 454 362 391 451 391 443 540 621 679 1202 964 1110 1075
1219 1008 938 980 669 620 672 581 520 263 154 342 408 684 299 427 202 11 411 186 120 295 84 48 34 27 9 2 11 0 0 0 0 0 0 0 0 0 0 0 0 0 2 284 569 289 413 518 535 565 361 424 352 204 382 422 512 391 494 899 1005 948
1200 1013 964 909 428 461 473 412 365 203 216 371 569 301 525 436 397 248 200 80 28 64 2 3 52 0 0 0 0 0 0 0 3 0 0 0 0 0 0 3 1 2 1 3 7 86 279 541 283 387 594 333 158 354 234 164 227 278 316 411 724 800
1262 1157 1194 784 407 443 506 355 452 318 235 538 381 345 106 3 204 224 68 147 121 0 9 3 0 0 0 0 0 0 0 0 0 0 0 0 0 0 1 1 6 13 3 0 0 0 0 0 0 0 381 616 346 313 299 170 114 249 412 202 393 432
1348 1188 1156 707 486 565 566 388 572 367 511 412 185 118 25 116 127 222 138 101 46 194 0 0 0 0 0 0 0 0 0 0 0 0 0 0 0 0 1 0 2 2 4 2 0 0 0 0 0 0 0 0 5 263 424 253 319 272 148 72 41 98
1290 1281 1116 646 594 701 585 445 561 480 690 330 193 271 98 115 70 209 149 92 100 89 36 0 0 0 0 0 0 0 0 0 0 0 0 0 0 1 20 26 14 5 4 9 8 8 11 11 0 0 0 0 0 0 0 0 0 0 0 3 6 0
1331 1422 1144 614 715 754 635 474 561 394 703 266 189 302 102 154 96 121 168 86 324 98 36 14 5 3 0 0 0 0 0 0 0 0 0 0 0 0 0 0 1 2 1 3 4 0 0 0 2 0 0 0 0 0 0 0 0 0 0 0 0 0
1343 1482 1213 627 738 776 701 488 657 342 738 394 314 448 158 266 122 284 133 112 220 101 89 4 13 37 0 0 1 0 2 0 0 0 0 0 0 0 0 0 0 0 0 0 0 0 0 0 0 0 6 0 0 0 0 0 0 0 0 0 0 0
1285 1556 1236 709 728 783 763 605 777 382 798 529 537 661 256 325 246 313 177 251 200 223 160 137 100 98 12 5 3 3 5 0 0 0 0 0 0 0 0 0 0 0 0 0 0 0 0 0 0 0 0 0 0 0 0 0 0 0 0 0 0 0
1224 1564 1254 742 701 698 770 814 889 471 707 418 687 560 489 426 281 426 324 236 227 334 299 146 100 282 5 87 81 3 1 0 0 0 0 0 0 0 0 0 0 0 0 0 0 0 0 0 0 0 0 0 0 0 0 0 0 0 0 0 0 0
1186 1470 1297 789 757 611 752 878 976 683 634 575 339 416 447 443 490 526 604 304 282 280 376 246 149 300 29 117 193 52 23 0 0 0 0 0 0 0 0 2 0 0 0 0 0 0 0 0 0 0 0 0 0 0 0 0 0 0 0 0 0 0
841 1192 1360 863 813 675 757 924 977 1051 688 839 457 458 380 582 545 477 697 600 346 254 477 343 300 419 110 166 312 191 16 8 1 0 0 0 0 0 0 2 0 0 0 0 0 0 0 0 0 0 0 0 0 0 0 0 0 0 0 0 0 0

ECMWFFLT2_con_mucape_042.txt.gz
CAPE
2061 2171 2232 2227 2242 2298 2459 2514 2498 2663 2727 2570 2400 2319 2381 2314 2221 2175 2167 1981 1898 1853 1827 1758 1789 1791 1787 1749 1664 1819 1654 1622 1629 1616 1489 1415 1375 1276 1235 1324 1361 1386 1284 1328 1169 1019 819 702 655 611 621 635 568 355 467 780 672 439 458 514 555 563
2049 2160 2190 2160 2148 2166 2308 2227 2136 2315 2205 2058 2104 1994 1876 2018 2112 1758 1840 1657 1673 1613 1624 1653 1676 1793 1717 1756 1753 1853 1457 1535 1660 1640 1530 1383 1433 1398 1333 1467 1463 1426 1304 1248 1122 896 628 488 398 437 530 601 287 321 499 718 663 442 478 401 504 770
2045 2077 2072 2048 2056 2086 2037 1883 1732 1710 1772 1656 1843 1529 1596 1650 1604 1520 1432 1515 1548 1408 1470 1644 1511 1704 1747 1709 1661 1603 1258 1340 1522 1606 1621 1632 1554 1530 1502 1527 1560 1452 1394 1328 986 702 446 138 0 95 222 298 278 299 449 702 686 528 516 488 456 1027
1985 2004 1948 1997 1967 1977 1952 1718 1452 1332 1356 1310 1288 1318 1366 1428 1419 1365 1398 1523 1395 1274 1290 1458 1597 1564 1594 1414 1466 1306 1173 1128 1529 1580 1746 1680 1649 1574 1629 1589 1567 1456 1335 1049 814 542 310 0 0 0 0 293 202 256 413 560 726 655 587 742 584 1220
1945 1934 1898 1955 1909 1948 1872 1546 1250 1090 1075 1054 1004 1139 1133 1226 1278 1284 1343 1530 1486 1335 1279 1337 1354 1281 1159 1188 1202 1226 1158 1094 1298 1460 1652 1444 1514 1536 1489 1446 1411 1322 940 701 517 340 4 0 0 0 0 0 90 266 358 534 754 662 610 643 759 1307
1974 1911 1863 1894 1858 1952 1824 1465 1225 1131 1035 969 908 930 981 1066 1146 1200 1282 1375 1424 1338 1274 1188 1280 1244 1060 1155 1154 1090 1084 1124 1492 1542 1539 1467 1454 1453 1409 1386 1300 1174 911 678 367 68 5 121 308 312 251 0 0 14 331 422 700 725 630 615 875 1335
1954 1968 1874 1839 1846 1870 1691 1463 1248 1159 1040 953 880 843 945 928 913 948 1094 1173 1198 1255 1192 1228 1229 1253 1198 1090 1000 1123 1185 1065 1201 1380 1449 1410 1408 1347 1410 1382 1268 1134 1011 895 689 552 556 477 287 22 3 0 0 57 349 409 715 648 638 601 915 1350
1917 1980 1850 1866 1826 1669 1606 1410 1339 1505 1086 985 914 772 785 877 902 846 886 1079 1004 914 1157 1245 1273 1158 1123 1129 983 1002 1054 1095 1057 1030 1355 1226 1104 1156 1368 1293 1145 1042 1024 969 823 432 349 309 0 0 0 0 0 0 299 348 727 608 605 633 842 1276
1928 1988 1892 1881 1717 1613 1512 1363 1271 1230 1052 1449 919 815 830 839 859 851 899 1263 1435 1006 975 1085 1195 1173 1191 1072 988 967 1040 1024 996 994 953 901 799 922 1033 969 806 748 717 656 448 98 44 92 15 0 0 0 0 0 0 207 658 498 558 598 782 1137
1920 2052 1955 1865 1719 1616 1511 1356 1299 1223 1163 1669 1200 1131 1119 966 923 1006 1073 1340 1498 1393 1028 1111 1259 1276 1281 1128 1078 981 923 958 909 794 822 799 626 686 804 754 683 679 717 701 541 162 232 122 21 0 0 0 0 0 0 361 526 456 547 612 733 842
2025 2045 2116 2030 1801 1746 1679 1598 1433 1406 1458 1572 1572 1435 1272 1227 1197 1177 1256 1339 1415 1316 1166 1153 1222 1217 1249 1178 1146 1108 1100 1064 899 834 852 795 698 641 636 590 661 740 772 727 606 622 515 142 31 0 0 0 0 0 1 308 407 445 567 660 685 757
2156 2134 2166 2260 2235 1997 1948 1909 1869 1805 1732 1602 1516 1414 1337 1320 1268 1201 1282 1262 1334 1392 1359 1287 1233 1190 1107 1209 1209 1196 1112 1008 866 790 745 774 703 641 714 794 811 820 841 750 604 632 688 362 45 0 0 0 0 0 0 156 364 432 616 676 671 781
2227 2235 2239 2271 2247 2208 2066 1978 1856 1699 1614 1518 1423 1282 1383 1357 1340 1267 1184 1188 1233 1343 1388 1274 1106 1156 1264 1254 1108 985 895 752 703 753 706 765 755 726 766 802 902 904 784 386 452 656 720 546 366 6 0 73 33 30 0 5 343 513 624 661 691 749
2345 2275 2321 2264 2090 2041 1977 1989 1854 1721 1634 1522 1474 1508 1465 1296 1187 1342 1432 1304 1268 1310 1216 1161 1120 1184 1246 1148 940 871 825 768 732 752 767 742 764 758 696 766 873 861 838 493 740 679 550 496 53 19 52 56 36 16 1 1 89 550 655 658 692 775
2245 1913 2025 2078 1976 1988 2010 1996 1816 1698 1640 1494 1498 1368 1122 1012 1110 1247 1352 1363 1394 1303 1282 1280 1130 1121 1201 1200 1016 940 912 906 888 881 862 816 773 785 845 906 872 828 927 783 661 537 451 399 108 342 219 32 92 60 11 27 10 552 704 738 718 698
1875 1621 1518 1764 1804 1890 1914 1842 1721 1752 1689 1520 1283 1102 993 954 1239 1433 1280 1469 1524 1487 1280 1100 1038 1085 1098 1148 1073 1022 984 908 892 963 886 833 850 882 850 793 826 904 907 896 692 562 463 410 337 438 358 176 122 98 56 65 71 378 678 690 754 788
1745 1563 1489 1583 1639 1713 1650 1657 1605 1762 1713 1410 1104 935 950 1097 1485 1591 1458 1492 1529 1394 1212 1068 1081 1242 1266 1166 1152 1052 995 910 880 975 962 898 928 950 858 800 894 965 994 973 772 584 497 386 422 417 474 531 497 330 92 113 146 105 463 765 754 786
1572 1354 1304 1407 1443 1492 1565 1576 1479 1593 1521 1245 997 816 1019 1289 1316 1267 1383 1178 951 1137 1006 1004 1113 1278 1287 1127 1040 993 897 844 839 861 886 872 915 846 780 788 919 1001 1016 996 932 695 536 413 457 520 558 622 611 559 555 374 326 209 53 48 312 570
1240 1193 1045 920 1002 1216 1422 1507 1304 1389 1460 1242 800 874 1059 1178 995 966 1095 877 934 1170 931 968 1023 1137 1059 1070 967 949 815 722 692 758 779 951 939 913 846 800 885 930 812 961 986 815 627 476 402 307 377 456 562 677 638 457 298 292 234 164 120 129
1089 882 926 1034 984 921 838 829 859 1052 988 693 594 787 834 895 871 904 780 632 628 980 986 944 1001 784 757 785 702 680 581 569 699 751 680 689 845 892 866 828 899 922 841 924 934 936 805 643 510 486 416 379 598 560 747 678 376 255 247 245 173 138
760 684 757 738 624 465 378 331 0 0 0 431 505 544 585 504 409 208 0 85 288 7 528 959 969 758 637 726 560 538 511 454 502 600 585 547 598 832 879 894 880 812 833 893 843 872 861 730 598 559 449 516 508 604 786 902 719 425 191 209 208 157
743 724 659 564 498 364 0 319 210 186 0 0 0 55 57 42 0 0 0 0 0 0 0 0 100 0 90 668 523 621 553 421 466 570 619 582 627 705 796 739 782 713 783 772 870 750 725 693 678 632 616 509 400 570 709 807 984 1042 794 300 173 210
728 735 659 409 19 0 0 0 0 0 0 0 0 0 0 0 0 0 0 0 0 0 0 0 0 0 0 471 604 588 562 516 520 595 776 732 667 673 787 782 767 766 760 747 730 687 711 695 730 684 622 502 478 435 451 523 814 915 1005 783 503 182
757 516 473 344 20 0 0 0 166 214 184 0 0 0 0 0 0 0 0 0 0 0 0 0 0 0 0 0 0 0 0 418 649 901 892 669 734 750 791 786 772 666 696 688 643 612 616 704 642 656 620 490 432 384 265 52 572 544 623 723 890 1038
772 553 510 316 37 25 14 151 229 205 122 0 0 0 0 0 0 99 0 0 0 0 0 0 0 0 0 0 0 0 0 0 753 794 596 291 31 98 508 630 588 553 604 665 573 624 556 604 685 583 546 469 327 160 136 486 636 459 528 73 793 1018
754 422 423 343 277 223 173 1 192 108 0 0 0 0 0 0 0 0 0 0 0 0 0 0 0 0 0 0 0 0 0 0 0 0 0 0 0 0 0 610 507 524 611 602 635 623 555 667 705 619 576 737 413 35 472 487 475 57 483 549 560 645
672 649 520 437 347 255 0 0 0 0 0 0 0 0 0 0 0 0 0 0 0 0 0 0 0 0 0 0 0 0 0 0 0 0 0 0 0 0 0 0 21 688 449 2 0 0 1 525 577 608 593 441 456 390 470 366 268 378 3 349 342 397
806 814 557 512 411 237 0 0 0 0 0 0 0 0 0 0 0 0 0 0 0 0 0 0 0 0 0 0 0 0 0 0 0 0 0 0 0 0 0 0 0 0 0 0 0 79 390 51 145 434 594 468 340 276 441 409 453 250 314 374 398 235
964 754 358 355 351 117 0 0 0 0 0 0 0 0 0 0 0 0 0 0 0 0 0 0 0 0 0 0 0 0 0 0 0 0 0 0 0 0 0 0 0 0 0 0 0 0 0 0 153 343 217 1 0 76 227 287 327 324 320 23 4 23
999 596 372 261 154 177 0 0 0 0 0 0 0 0 0 0 0 0 0 0 0 0 0 0 0 0 0 0 0 0 0 0 0 0 0 0 0 0 0 0 0 0 0 0 0 0 0 0 0 0 0 68 74 93 25 134 159 186 152 72 0 0
771 540 429 298 169 25 21 0 0 0 0 0 0 0 0 0 0 0 0 0 0 0 0 0 0 0 0 0 0 0 0 0 0 0 0 0 0 0 0 0 0 0 0 0 0 0 0 0 0 0 0 0 26 14 0 0 0 20 20 0 0 0
681 605 492 330 227 104 0 0 0 0 0 0 0 0 0 0 0 0 0 0 0 0 0 0 0 0 0 0 0 0 0 0 0 0 0 0 0 0 0 0 0 0 0 0 0 0 0 0 0 0 0 0 0 0 0 0 0 0 0 0 0 0
670 581 471 304 267 0 0 0 0 0 0 0 0 0 0 0 0 0 0 0 0 0 0 0 0 0 0 0 0 0 0 0 0 0 0 0 0 0 0 0 0 0 0 0 0 0 0 0 0 0 0 0 0 0 0 0 0 0 0 0 0 0
1034 560 415 318 175 0 0 0 0 0 0 0 0 0 0 0 0 0 0 0 0 0 0 0 0 0 0 0 0 0 0 0 0 0 0 0 0 0 0 0 0 0 0 0 0 0 0 0 0 0 0 0 0 0 0 0 0 0 0 0 0 0
1048 764 400 309 1 0 0 0 0 0 0 0 0 0 0 0 0 0 0 0 0 0 0 0 0 0 0 0 0 0 0 0 0 0 0 0 0 0 0 0 0 0 0 0 0 0 0 0 0 0 0 0 0 0 0 0 0 0 0 0 0 0
1189 567 208 120 6 0 0 0 0 0 110 0 0 0 0 0 0 0 0 0 0 0 0 0 0 0 0 0 0 0 0 0 0 0 0 0 0 0 0 0 0 0 0 0 0 0 0 0 0 0 0 0 0 0 0 0 0 0 0 0 0 0
1326 883 199 420 14 4 0 14 0 0 0 0 0 0 0 0 0 0 0 0 0 0 0 0 0 0 0 0 0 0 0 0 0 0 0 0 0 0 0 0 0 0 0 0 0 0 0 0 0 0 0 0 0 0 0 0 0 0 0 0 0 0

ECMWFFLT2_con_mucape_045.txt.gz
CAPE
2082 2240 2242 2308 2395 2490 2587 2621 2693 2751 2682 2537 2490 2341 2332 2273 2180 2218 2015 2182 2007 1934 1806 1674 1554 1705 1721 1703 1612 1711 1586 1699 1683 1677 1601 1515 1470 1406 1418 1436 1411 1393 1325 1270 1234 1153 1040 910 751 511 502 661 376 498 648 475 438 413 331 397 582 497
2113 2237 2268 2304 2352 2389 2510 2450 2451 2427 2406 2257 2230 2060 1998 2096 2030 2074 2010 1973 1972 1933 1867 1764 1677 1598 1747 1837 1846 1862 1723 1682 1680 1634 1586 1586 1487 1405 1439 1534 1534 1514 1397 1311 1276 958 651 411 250 253 270 294 368 524 634 568 395 379 348 432 500 446
2120 2266 2323 2300 2284 2287 2280 2279 2261 2252 2141 2298 2087 2052 1935 1849 1799 1810 1784 1824 1817 1846 1823 1783 1650 1717 1732 1857 1711 1783 1645 1634 1660 1658 1600 1648 1533 1452 1498 1635 1652 1552 1447 1377 1093 811 561 302 0 34 202 264 369 512 639 602 441 347 411 434 401 599
2100 2266 2291 2259 2260 2218 2105 2094 2087 2024 1960 1830 1730 1724 1652 1622 1588 1562 1633 1675 1676 1731 1769 1683 1520 1529 1600 1632 1714 1748 1702 1698 1646 1687 1698 1572 1641 1590 1652 1733 1745 1586 1409 1184 935 741 442 204 0 0 145 242 336 367 606 629 529 467 481 589 434 840
2130 2200 2186 2232 2228 2134 1963 1955 1949 1902 1813 1671 1577 1602 1591 1535 1516 1526 1584 1550 1528 1503 1654 1562 1367 1453 1479 1541 1573 1476 1382 1535 1572 1513 1403 1596 1636 1605 1717 1508 1466 1410 1088 843 641 426 227 0 0 185 258 224 316 346 424 662 623 554 507 470 405 1054
2114 2146 2149 2142 2154 2059 1852 1760 1794 1753 1596 1488 1474 1478 1513 1537 1475 1518 1623 1586 1484 1460 1518 1552 1459 1397 1438 1461 1472 1403 1330 1326 1467 1595 1434 1526 1518 1492 1499 1318 1252 1130 1000 756 562 342 200 289 352 264 6 235 271 359 388 564 696 613 543 432 448 1214
2100 2116 2126 2077 2052 2052 1713 1524 1488 1473 1387 1282 1322 1322 1377 1449 1480 1456 1590 1648 1592 1506 1465 1441 1455 1382 1271 1333 1363 1333 1350 1250 1446 1517 1532 1506 1498 1442 1470 1293 1259 1084 963 887 802 668 577 470 230 6 0 99 227 292 335 444 711 672 585 498 534 1393
2067 2041 2029 1982 1950 1900 1568 1416 1256 1318 1173 1099 1102 1146 1133 1285 1378 1391 1460 1526 1589 1530 1432 1360 1390 1425 1370 1308 1264 1251 1259 1256 1393 1449 1507 1505 1501 1480 1427 1384 1277 1087 1014 1006 961 691 307 211 0 0 0 0 117 160 347 347 621 696 610 519 524 1403
1836 1833 1866 1849 1745 1599 1494 1347 1434 1261 1178 1380 993 1003 1093 1087 1089 1104 1123 1212 1253 1301 1386 1394 1414 1400 1342 1280 1219 1147 1222 1276 1224 1295 1288 1311 1296 1286 1322 1364 1306 986 785 801 711 591 386 264 20 0 0 0 0 225 295 252 390 708 591 558 550 1216
1918 1786 1844 1766 1569 1499 1451 1362 1314 1301 1124 1461 1041 838 836 996 1089 1020 1002 1330 1358 1055 1184 1317 1360 1336 1272 1278 1219 1114 1123 1209 1195 1180 1114 1150 1216 1086 1112 1232 1066 916 806 759 754 702 418 458 282 15 0 0 0 200 232 230 296 635 561 527 597 991
2036 1979 1857 1706 1522 1489 1504 1431 1385 1342 1259 1539 1109 1064 1014 1118 1088 1028 1077 1386 1599 1550 1360 1167 1284 1372 1373 1360 1237 1180 1128 1059 1036 994 964 1030 976 895 983 1012 968 849 758 749 727 680 638 575 314 14 0 0 12 0 0 2 46 600 582 517 588 850
2075 2025 1879 1707 1660 1553 1579 1579 1558 1385 1337 1430 1483 1490 1542 1513 1337 1216 1326 1464 1565 1614 1376 1216 1366 1530 1477 1406 1351 1311 1215 1165 1127 1013 916 946 962 887 802 814 791 836 882 901 929 602 678 648 323 1 0 52 26 2 0 4 6 526 591 499 572 716
2170 2104 1947 1836 1746 1683 1730 1798 1679 1514 1513 1575 1670 1734 1644 1548 1485 1474 1486 1496 1503 1417 1310 1258 1316 1347 1268 1378 1402 1362 1325 1195 998 881 857 870 915 886 820 832 912 945 969 955 882 526 738 693 362 0 17 75 39 18 0 10 1 463 550 470 602 654
2285 2290 2174 1966 1934 2002 2034 2002 1797 1910 1994 1965 1824 1634 1507 1478 1448 1448 1433 1417 1470 1410 1339 1232 1202 1211 1151 1260 1438 1350 1126 960 856 801 816 821 833 841 867 871 898 931 986 980 700 660 740 607 240 91 50 43 41 23 56 28 18 372 440 426 618 672
2453 2415 2401 2418 2421 2408 2312 2178 2107 2112 1984 1839 1678 1549 1527 1562 1523 1471 1418 1340 1228 1296 1215 1240 1179 1101 1070 1248 1246 1076 932 899 880 871 862 878 895 870 858 871 887 956 978 910 718 749 672 527 368 210 133 37 103 89 98 145 32 311 99 417 644 710
2601 2593 2586 2551 2560 2514 2413 2285 2178 2076 1908 1764 1597 1571 1601 1482 1330 1435 1411 1264 1213 1260 1324 1185 1172 1053 1080 1139 1107 1052 1032 986 946 955 989 1007 973 926 925 954 992 964 978 912 813 760 652 531 454 252 390 211 143 243 48 21 165 350 377 475 658 719
2715 2739 2683 2630 2484 2342 2230 2170 2098 1985 1844 1655 1553 1468 1218 1066 1223 1314 1356 1476 1390 1292 1264 1214 1151 957 883 901 1112 1075 1061 1010 973 950 984 992 967 989 1012 1020 913 911 1012 982 904 814 721 568 422 339 526 434 317 119 129 84 324 486 482 569 699 753
2688 2752 2580 2475 2401 2247 2140 2164 2037 1848 1696 1580 1474 1206 1024 1161 1438 1594 1589 1451 1447 1374 1263 1127 1048 1056 1013 1113 988 1047 1030 993 942 921 906 946 1008 1006 1065 1002 953 973 1020 1017 979 885 778 656 530 465 441 476 399 375 317 252 122 565 693 694 666 692
2670 2510 2151 2049 2154 2053 2033 1942 1819 1735 1560 1434 1129 911 1116 1316 1439 1251 1494 1464 1439 1256 1116 1007 1005 1065 1277 1178 1007 983 957 879 827 858 854 886 966 1000 995 949 931 986 1013 1033 1037 972 851 735 632 509 456 491 517 450 406 298 275 323 496 599 642 702
2513 2295 1910 1705 1710 1756 1740 1612 1495 1444 1406 1230 814 930 1104 1212 1043 958 950 866 913 992 1012 988 919 1036 1192 1053 1016 955 867 773 756 756 768 820 996 1052 1065 928 846 933 974 1025 979 1061 992 848 714 567 517 434 541 722 541 331 271 259 258 269 296 374
2364 2147 1688 1566 1582 1560 1468 1402 1269 1223 1228 968 790 919 909 853 864 754 479 508 857 1096 953 947 918 947 798 806 755 764 706 631 655 726 747 746 734 905 913 795 813 918 964 962 953 998 1037 940 811 681 521 547 544 629 718 685 380 189 238 250 252 225
2027 1609 1295 1198 1269 1330 1250 1207 1051 1064 1042 710 731 817 774 628 358 56 0 0 0 422 813 904 953 816 692 584 488 494 499 473 556 637 620 605 642 857 948 848 918 968 944 912 957 876 928 876 862 816 632 518 462 520 734 863 1007 960 561 262 255 252
1426 1216 1127 1142 1170 1118 1055 894 814 674 569 605 653 681 460 13 0 0 0 0 0 0 0 27 144 0 0 488 434 491 428 437 508 557 611 669 691 731 868 945 871 793 756 803 831 854 809 781 809 810 720 597 562 431 530 766 804 805 946 605 338 91
1200 1065 1169 1046 963 726 526 321 274 384 426 472 490 487 340 0 0 0 0 0 0 0 0 0 0 0 0 416 442 480 439 478 592 686 650 639 677 795 821 836 826 710 647 765 782 726 709 784 714 830 714 609 523 432 350 328 450 506 602 917 786 625
1053 1003 1012 785 626 522 377 274 214 236 244 133 236 144 0 0 0 0 0 0 0 0 0 0 0 0 0 0 0 118 422 603 714 698 595 558 563 627 730 772 801 776 694 800 634 664 704 684 685 754 675 579 435 376 333 416 510 416 202 747 960 960
931 818 744 700 669 420 248 185 160 178 179 58 0 0 0 0 0 0 0 0 0 0 0 0 0 0 0 0 0 200 672 680 517 405 327 318 382 433 498 554 591 636 649 650 621 658 547 608 727 634 670 746 348 33 410 380 363 36 16 501 122 450
967 857 791 743 549 172 114 0 0 0 150 26 0 0 0 0 0 0 0 0 0 0 0 0 0 0 0 0 0 125 321 243 35 0 0 0 0 211 407 529 540 565 595 554 485 598 577 583 686 647 637 575 480 511 599 420 321 284 145 358 418 178
1070 906 614 277 0 0 129 94 0 0 0 0 0 0 0 0 0 0 0 0 0 0 0 0 0 0 0 0 0 0 0 0 0 0 0 0 0 0 0 180 417 429 355 341 132 3 416 554 631 596 616 550 558 498 478 489 513 215 48 364 16 0
695 457 423 267 0 0 0 177 166 167 0 0 0 0 0 0 0 0 0 0 0 0 0 0 0 0 0 0 0 0 0 0 0 0 0 0 0 0 0 0 95 0 0 0 0 0 0 0 103 398 520 535 412 352 385 471 427 363 379 0 32 0
729 558 458 327 70 0 0 183 227 0 0 0 0 0 0 0 0 0 0 0 0 0 0 0 0 0 0 0 0 0 0 0 0 0 0 0 0 0 0 0 0 0 0 0 0 0 0 0 0 0 0 0 0 0 0 199 264 274 276 178 111 60
792 603 448 422 368 314 221 0 0 0 0 0 0 0 0 0 0 0 0 0 0 0 0 0 0 0 0 0 0 0 0 0 0 0 0 0 0 0 0 0 0 0 0 0 0 0 0 0 0 0 0 0 0 0 0 0 0 0 30 89 119 0
732 634 564 522 491 448 346 166 0 0 0 0 0 0 0 0 0 0 0 0 0 0 0 0 0 0 0 0 0 0 0 0 0 0 0 0 0 0 0 0 0 0 0 0 0 0 0 0 0 0 0 0 0 0 0 0 0 0 0 0 0 0
600 672 699 636 551 571 498 0 0 0 0 0 0 0 0 0 0 0 0 0 0 0 0 0 0 0 0 0 0 0 0 0 0 0 0 0 0 0 0 0 0 0 0 0 0 0 0 0 0 0 0 0 0 0 0 0 0 0 0 0 0 0
507 691 734 443 260 377 388 133 0 0 0 0 0 0 0 0 0 0 0 0 0 0 0 0 0 0 0 0 0 0 0 0 0 0 0 0 0 0 0 0 0 0 0 0 0 0 0 0 0 0 0 0 0 0 0 0 0 0 0 0 0 0
627 793 678 390 324 328 294 79 0 0 0 0 0 0 0 0 0 0 0 0 0 0 0 0 0 0 0 0 0 0 0 0 0 0 0 0 0 0 0 0 0 0 0 0 0 0 0 0 0 0 0 0 0 0 0 0 0 0 0 0 0 0
657 784 737 102 422 475 440 362 0 0 0 0 0 0 0 0 0 0 0 0 0 0 0 0 0 0 0 0 0 0 0 0 0 0 0 0 0 0 0 0 0 0 0 0 0 0 0 0 0 0 0 0 0 0 0 0 0 0 0 0 0 0
607 564 420 202 365 476 552 381 184 0 0 0 0 0 0 0 0 0 0 0 0 0 0 0 0 0 0 0 0 0 0 0 0 0 0 0 0 0 0 0 0 0 0 0 0 0 0 0 0 0 0 0 0 0 0 0 0 0 0 0 0 0

ECMWFFLT2_con_mucape_048.txt.gz
CAPE
1823 1937 1990 2034 2049 2078 2303 2508 2485 2327 2046 2460 2480 2443 2223 2222 2124 2032 1980 2020 1774 1656 1600 1668 1804 1644 1718 1640 1589 1731 1645 1756 1789 1768 1708 1624 1533 1493 1461 1518 1432 1423 1402 1339 1263 902 636 619 360 446 530 386 599 605 686 556 593 504 382 504 724 447
1868 2037 2111 2040 2116 2018 2121 2295 2234 2074 2077 2419 2340 2247 2159 2132 2122 2074 2070 1971 1806 1747 1676 1718 1791 1966 1780 1886 1744 1905 1913 1887 1869 1810 1742 1661 1601 1544 1557 1599 1600 1556 1483 1351 919 740 503 277 238 329 397 392 608 630 532 518 585 494 400 459 603 474
1922 2076 2155 2243 2222 2150 2128 2316 2286 2272 2276 2366 2331 2393 2127 2086 2096 1994 2009 2030 1953 1883 1775 1750 1720 1874 1879 2075 1929 1795 1896 1875 1854 1880 1790 1724 1616 1544 1573 1662 1647 1554 1314 1049 759 583 297 0 0 221 339 401 452 669 575 520 524 484 422 466 493 585
2055 2128 2214 2241 2278 2275 2265 2295 2230 2191 2189 2086 2065 2041 2054 2089 2009 1959 1978 2006 2014 1944 1885 1719 1977 1870 1870 1873 1658 1427 1545 1535 1890 1757 1765 1791 1703 1638 1688 1708 1659 1311 926 781 620 325 0 0 299 308 197 360 412 637 664 564 500 463 432 584 493 656
2075 2094 2222 2149 2231 2147 1932 2076 2086 2054 2046 1992 1954 1915 1921 1948 1906 1898 1925 1958 1996 1974 1883 1722 1654 1622 1610 1787 1586 1510 1388 1457 1542 1546 1571 1597 1617 1626 1646 1486 1340 1136 824 571 464 364 271 356 350 263 183 227 333 568 660 661 534 462 496 497 583 703
2014 1789 1647 1784 2014 1797 1863 2008 1943 1950 1902 1827 1794 1741 1750 1746 1762 1827 1827 1879 1929 1902 1767 1603 1631 1604 1576 1677 1582 1428 1424 1485 1391 1384 1530 1543 1599 1477 1475 1293 1065 938 758 631 677 630 542 407 264 178 171 192 329 386 592 707 630 556 510 491 509 774
2090 1807 1713 1985 2091 1990 1913 1937 1945 1939 1824 1738 1680 1658 1646 1672 1719 1737 1701 1687 1717 1768 1719 1591 1520 1535 1576 1565 1332 1314 1162 1186 1095 1370 1347 1446 1544 1325 1292 1199 1085 877 848 879 855 786 442 244 210 189 186 121 370 376 512 685 766 632 535 482 448 809
2050 2048 1963 2144 2044 1983 1903 1960 1958 1907 1745 1650 1659 1614 1619 1649 1704 1794 1765 1718 1676 1640 1657 1612 1578 1488 1380 1425 1308 1251 1163 1170 1039 877 1006 1092 1195 1438 1194 1156 1112 975 998 838 837 556 409 329 308 222 17 184 379 384 416 582 757 747 596 506 490 705
2069 2126 2128 1989 2036 1989 1958 1959 1854 1733 1532 1442 1534 1571 1583 1616 1659 1692 1774 1791 1746 1640 1578 1513 1477 1498 1488 1386 1314 1206 1151 1225 1006 982 933 896 1069 1390 1477 1156 1182 1100 768 721 674 654 522 507 419 252 164 166 328 336 354 456 629 755 715 522 486 574
2100 2128 2126 2115 2066 1924 1852 1795 1606 1527 1352 1263 1363 1358 1363 1453 1531 1500 1551 1577 1538 1556 1567 1487 1467 1472 1436 1363 1292 1223 1135 1175 1100 920 951 978 1065 1086 1234 1196 1202 1025 885 775 683 668 611 568 427 204 174 186 176 202 281 321 317 522 733 666 507 500
2049 2026 2010 1972 1968 1867 1638 1436 1214 1314 1371 1210 1160 1163 1219 1246 1217 1159 1181 1254 1150 1188 1285 1348 1381 1406 1336 1292 1318 1224 1164 1095 982 884 947 930 960 1014 1107 1059 1090 981 852 719 740 744 602 642 425 128 130 161 170 200 234 264 267 313 565 740 596 509
1817 1960 1918 1858 1728 1597 1514 1351 1265 1276 1323 1150 1174 1033 1226 1280 1487 1374 1339 1495 1467 1422 1304 1315 1251 1327 1367 1451 1344 1241 1201 1076 1032 1005 892 872 899 974 946 952 938 845 752 820 860 893 661 709 524 285 143 138 119 193 221 219 189 256 312 702 666 543
1930 2110 1915 1793 1607 1512 1526 1452 1416 1443 1299 1363 1448 1595 1689 1709 1595 1477 1374 1362 1432 1379 1356 1236 1293 1359 1308 1194 1300 1248 1178 1226 1170 978 823 783 823 905 898 823 782 825 883 912 905 891 674 749 530 366 267 172 147 188 207 154 44 102 301 557 667 526
2138 2126 1968 1845 1699 1589 1556 1495 1660 1552 1451 1685 1896 1747 1604 1571 1534 1494 1490 1456 1425 1444 1275 1302 1306 1282 1249 1163 1218 1287 1288 1119 892 796 698 692 760 801 820 772 775 828 886 918 952 774 725 756 531 426 347 267 175 190 200 185 49 84 317 522 664 510
2178 2119 2000 1930 1773 1724 1608 1709 1803 1752 1931 1942 1775 1579 1496 1531 1456 1470 1477 1418 1388 1308 1367 1273 1230 1177 1188 1116 1152 1222 1061 925 806 794 745 720 737 734 744 794 794 794 837 927 912 786 788 726 566 489 406 321 246 213 156 168 72 96 333 524 609 502
2167 2102 2080 2029 1976 2004 2111 2157 1972 1820 1975 1830 1583 1507 1573 1589 1537 1476 1419 1394 1245 1196 1306 1242 1140 1131 1134 1032 1137 1047 938 896 860 817 812 832 843 835 808 797 813 870 951 992 908 780 732 739 640 489 453 399 332 220 153 137 115 136 354 470 546 482
2270 2348 2348 2273 2257 2344 2379 2291 2177 2018 1807 1514 1421 1500 1492 1395 1331 1399 1451 1344 1257 1248 1269 1335 1212 1061 807 1024 962 889 930 925 866 833 823 863 873 837 784 812 859 897 887 991 919 808 766 712 672 583 438 349 325 295 143 96 39 309 331 373 435 529
2500 2525 2498 2517 2496 2483 2376 2206 2070 1808 1450 1214 1164 1178 1082 1147 1281 1329 1356 1384 1363 1356 1251 1214 1109 1014 781 816 878 880 920 932 872 825 790 811 839 835 859 886 940 905 863 960 977 894 848 785 722 612 525 428 390 324 260 310 455 497 476 429 438 523
2562 2667 2646 2636 2564 2402 2193 2080 1960 1366 1166 1027 904 1022 1159 1263 1475 1426 1556 1395 1419 1338 1214 1112 1023 838 790 886 840 819 847 796 711 701 731 797 789 810 860 859 882 859 842 933 1035 953 910 846 822 675 558 478 441 440 374 322 426 718 774 764 693 666
2641 2773 2725 2590 2403 2237 2022 1821 1372 1267 1140 971 944 1111 1178 1348 1130 1067 1269 1326 1275 1210 1075 994 927 889 956 912 909 853 739 650 620 594 629 656 696 765 819 857 870 799 818 850 884 924 802 744 753 685 663 566 605 483 435 390 325 388 532 660 727 747
2677 2737 2528 2142 2003 1920 1716 1391 1354 1254 1024 773 960 1074 1136 1072 857 815 793 780 834 884 963 930 839 887 965 757 644 690 653 498 536 557 569 546 500 542 657 749 685 684 676 694 795 780 814 747 743 677 683 679 629 640 637 423 344 347 332 374 400 456
2560 2445 2070 1775 1734 1674 1430 1233 1138 1152 969 690 883 928 823 819 779 483 94 340 687 893 861 803 788 812 624 348 160 474 455 348 423 480 478 424 403 488 646 773 677 630 607 726 734 660 784 628 702 712 740 666 605 702 733 732 699 716 469 305 304 293
2361 2188 1906 1672 1564 1457 1210 1081 976 999 912 656 798 747 670 577 200 0 0 0 0 329 723 711 692 634 464 0 0 0 0 5 241 428 469 466 474 491 556 815 782 673 695 712 720 722 640 568 614 630 421 560 598 532 544 655 776 731 670 458 371 314
2201 1974 1574 1522 1384 1203 1095 1056 902 938 887 621 706 660 339 0 0 0 0 0 0 0 0 0 0 0 0 0 0 0 0 0 0 114 233 477 518 571 636 723 713 530 481 512 576 659 678 519 544 587 395 537 548 394 423 570 614 716 860 711 546 447
1846 1502 1199 1156 1152 1139 997 936 818 681 618 550 560 557 143 0 0 0 0 0 0 0 0 0 0 0 0 0 0 0 336 402 338 128 155 202 487 570 592 517 655 613 629 600 593 547 525 581 543 108 453 0 441 418 231 386 487 488 564 779 748 798
1409 1126 1030 1103 1102 1065 916 658 447 380 415 302 299 280 0 0 0 0 0 0 0 0 0 0 0 0 0 0 0 295 405 368 18 20 227 322 336 402 52 519 597 590 538 633 526 426 490 428 634 626 622 591 14 101 484 217 130 175 320 544 583 696
1177 1025 986 1034 985 864 613 457 313 245 239 184 152 86 0 0 0 0 0 0 0 0 0 0 0 0 0 0 83 445 420 308 119 0 0 0 102 134 394 441 540 535 538 527 357 434 428 476 496 564 505 482 500 557 570 333 292 133 289 52 434 452
1161 1006 962 898 815 701 553 398 237 204 180 151 0 0 0 0 0 0 0 0 0 0 0 0 0 0 0 0 93 368 357 0 0 0 0 0 0 0 248 461 522 409 267 116 2 279 412 468 469 471 482 473 528 527 480 522 0 21 5 161 10 185
1284 1043 980 870 792 673 531 301 187 156 38 0 0 0 0 0 0 0 0 0 0 0 0 0 0 0 0 0 0 0 0 0 0 0 0 0 0 0 0 242 316 266 78 0 86 350 407 493 393 442 298 184 4 0 210 0 133 46 0 0 0 0
1507 1129 966 845 749 634 358 46 0 0 0 0 0 0 0 0 0 0 0 0 0 0 0 0 0 0 0 0 0 0 0 0 0 0 0 0 0 0 0 0 0 0 0 0 0 0 0 0 179 14 0 0 0 0 0 0 0 0 0 5 6 0
1718 1256 987 898 739 456 37 0 0 0 0 0 0 0 0 0 0 0 0 0 0 0 0 0 0 0 0 0 0 0 0 0 0 0 0 0 0 0 0 0 0 0 0 0 0 0 0 0 0 0 0 0 0 0 0 0 0 0 0 0 6 0
1780 1371 1087 911 683 136 0 0 0 0 0 0 0 0 0 0 0 0 0 0 0 0 0 0 0 0 0 0 0 0 0 0 0 0 0 0 0 0 0 0 0 0 0 0 0 0 0 0 0 0 0 0 0 0 0 0 0 0 0 0 0 0
1777 1558 1269 660 329 0 0 0 0 0 0 0 0 0 0 0 0 0 0 0 0 0 0 0 0 0 0 0 0 0 0 0 0 0 0 0 0 0 0 0 0 0 0 0 0 0 0 0 0 0 0 0 0 0 0 0 0 0 0 0 0 0
1440 1465 769 569 506 397 331 0 0 0 0 0 0 0 0 0 0 0 0 0 0 0 0 0 0 0 0 0 0 0 0 0 0 0 0 0 0 0 0 0 0 0 0 0 0 0 0 0 0 0 0 0 0 0 0 0 0 0 0 0 0 0
947 828 691 630 559 529 508 458 439 427 362 288 0 0 0 0 0 0 0 0 0 0 0 0 0 0 0 0 0 0 0 0 0 0 0 0 0 0 0 0 0 0 0 0 0 0 0 0 0 0 0 0 0 0 0 0 0 0 0 0 0 0
710 702 758 649 630 659 702 686 693 661 542 315 0 0 0 0 0 0 0 0 0 0 0 0 0 0 0 0 0 0 0 0 0 0 0 0 0 0 0 0 0 0 0 0 0 0 0 0 0 0 0 0 0 0 0 0 0 0 0 0 0 0
465 595 706 692 727 820 731 596 570 578 457 231 43 0 0 0 0 0 0 0 0 0 0 0 0 0 0 0 0 0 0 0 0 0 0 0 0 0 0 0 0 0 0 0 0 0 0 0 0 0 0 0 0 0 0 0 0 0 0 0 0 0